<?xml version="1.0" encoding="UTF-8" standalone="no" ?>
<gpx xmlns="http://www.topografix.com/GPX/1/1" xmlns:xsi="http://www.w3.org/2001/XMLSchema-instance" xsi:schemaLocation="http://www.topografix.com/GPX/1/1 http://www.topografix.com/GPX/1/1/gpx.xsd" version="1.1" creator="VisuGPX - https://www.visugpx.com">
  <metadata>
    <name>jour 2_5_75km_sans la fin</name>
  </metadata>
  <trk>
    <name><![CDATA[jour 2_5_sans la fin_75km]]></name>
    <extensions>
      <line xmlns="http://www.topografix.com/GPX/gpx_style/0/2">
        <color>0000FF</color>
        <width>4</width>
      </line>
    </extensions>
    <trkseg>
      <trkpt lat="50.75638" lon="5.93835">
        <ele>123</ele>
        <time>2025-04-20T12:49:49Z</time>
      </trkpt>
      <trkpt lat="50.75578" lon="5.93886">
        <ele>125</ele>
        <time>2025-04-20T12:50:05Z</time>
      </trkpt>
      <trkpt lat="50.7554" lon="5.93901">
        <ele>126</ele>
        <time>2025-04-20T12:50:14Z</time>
      </trkpt>
      <trkpt lat="50.75502" lon="5.93889">
        <ele>126</ele>
        <time>2025-04-20T12:50:23Z</time>
      </trkpt>
      <trkpt lat="50.75445" lon="5.939">
        <ele>125</ele>
        <time>2025-04-20T12:50:37Z</time>
      </trkpt>
      <trkpt lat="50.75387" lon="5.93984">
        <ele>125</ele>
        <time>2025-04-20T12:50:55Z</time>
      </trkpt>
      <trkpt lat="50.75335" lon="5.94125">
        <ele>133</ele>
        <time>2025-04-20T12:51:19Z</time>
      </trkpt>
      <trkpt lat="50.75227" lon="5.94272">
        <ele>142</ele>
        <time>2025-04-20T12:51:52Z</time>
      </trkpt>
      <trkpt lat="50.75217" lon="5.9437">
        <ele>147</ele>
        <time>2025-04-20T12:52:07Z</time>
      </trkpt>
      <trkpt lat="50.75173" lon="5.9455">
        <ele>153</ele>
        <time>2025-04-20T12:52:35Z</time>
      </trkpt>
      <trkpt lat="50.75136" lon="5.9479">
        <ele>160</ele>
        <time>2025-04-20T12:53:12Z</time>
      </trkpt>
      <trkpt lat="50.75138" lon="5.94848">
        <ele>160</ele>
        <time>2025-04-20T12:53:21Z</time>
      </trkpt>
      <trkpt lat="50.75166" lon="5.94989">
        <ele>166</ele>
        <time>2025-04-20T12:53:42Z</time>
      </trkpt>
      <trkpt lat="50.75211" lon="5.95194">
        <ele>171</ele>
        <time>2025-04-20T12:54:14Z</time>
      </trkpt>
      <trkpt lat="50.75231" lon="5.95352">
        <ele>173</ele>
        <time>2025-04-20T12:54:38Z</time>
      </trkpt>
      <trkpt lat="50.75246" lon="5.95531">
        <ele>173</ele>
        <time>2025-04-20T12:55:05Z</time>
      </trkpt>
      <trkpt lat="50.75322" lon="5.95887">
        <ele>177</ele>
        <time>2025-04-20T12:56:00Z</time>
      </trkpt>
      <trkpt lat="50.75347" lon="5.96134">
        <ele>181</ele>
        <time>2025-04-20T12:56:37Z</time>
      </trkpt>
      <trkpt lat="50.75394" lon="5.96407">
        <ele>190</ele>
        <time>2025-04-20T12:57:19Z</time>
      </trkpt>
      <trkpt lat="50.75397" lon="5.96852">
        <ele>204</ele>
        <time>2025-04-20T12:58:25Z</time>
      </trkpt>
      <trkpt lat="50.75194" lon="5.9737">
        <ele>205</ele>
        <time>2025-04-20T12:59:55Z</time>
      </trkpt>
      <trkpt lat="50.75127" lon="5.97418">
        <ele>200</ele>
        <time>2025-04-20T13:00:12Z</time>
      </trkpt>
      <trkpt lat="50.75043" lon="5.9742">
        <ele>193</ele>
        <time>2025-04-20T13:00:32Z</time>
      </trkpt>
      <trkpt lat="50.74943" lon="5.97558">
        <ele>185</ele>
        <time>2025-04-20T13:01:03Z</time>
      </trkpt>
      <trkpt lat="50.74865" lon="5.97674">
        <ele>185</ele>
        <time>2025-04-20T13:01:28Z</time>
      </trkpt>
      <trkpt lat="50.74868" lon="5.97787">
        <ele>190</ele>
        <time>2025-04-20T13:01:44Z</time>
      </trkpt>
      <trkpt lat="50.74921" lon="5.97955">
        <ele>197</ele>
        <time>2025-04-20T13:02:12Z</time>
      </trkpt>
      <trkpt lat="50.74919" lon="5.98024">
        <ele>197</ele>
        <time>2025-04-20T13:02:22Z</time>
      </trkpt>
      <trkpt lat="50.74751" lon="5.98717">
        <ele>212</ele>
        <time>2025-04-20T13:04:12Z</time>
      </trkpt>
      <trkpt lat="50.74666" lon="5.99046">
        <ele>218</ele>
        <time>2025-04-20T13:05:05Z</time>
      </trkpt>
      <trkpt lat="50.74689" lon="5.99124">
        <ele>221</ele>
        <time>2025-04-20T13:05:17Z</time>
      </trkpt>
      <trkpt lat="50.74681" lon="5.99179">
        <ele>221</ele>
        <time>2025-04-20T13:05:26Z</time>
      </trkpt>
      <trkpt lat="50.74658" lon="5.99242">
        <ele>217</ele>
        <time>2025-04-20T13:05:36Z</time>
      </trkpt>
      <trkpt lat="50.74724" lon="5.99357">
        <ele>219</ele>
        <time>2025-04-20T13:05:59Z</time>
      </trkpt>
      <trkpt lat="50.74773" lon="5.99471">
        <ele>219</ele>
        <time>2025-04-20T13:06:20Z</time>
      </trkpt>
      <trkpt lat="50.74812" lon="5.99634">
        <ele>220</ele>
        <time>2025-04-20T13:06:45Z</time>
      </trkpt>
      <trkpt lat="50.74841" lon="5.99874">
        <ele>221</ele>
        <time>2025-04-20T13:07:22Z</time>
      </trkpt>
      <trkpt lat="50.74866" lon="5.99997">
        <ele>222</ele>
        <time>2025-04-20T13:07:41Z</time>
      </trkpt>
      <trkpt lat="50.74929" lon="6.0021">
        <ele>230</ele>
        <time>2025-04-20T13:08:15Z</time>
      </trkpt>
      <trkpt lat="50.74926" lon="6.00222">
        <ele>229</ele>
        <time>2025-04-20T13:08:17Z</time>
      </trkpt>
      <trkpt lat="50.74983" lon="6.0046">
        <ele>231</ele>
        <time>2025-04-20T13:08:55Z</time>
      </trkpt>
      <trkpt lat="50.75008" lon="6.00469">
        <ele>233</ele>
        <time>2025-04-20T13:09:01Z</time>
      </trkpt>
      <trkpt lat="50.75036" lon="6.00642">
        <ele>234</ele>
        <time>2025-04-20T13:09:27Z</time>
      </trkpt>
      <trkpt lat="50.7505" lon="6.00773">
        <ele>235</ele>
        <time>2025-04-20T13:09:47Z</time>
      </trkpt>
      <trkpt lat="50.75049" lon="6.00901">
        <ele>235</ele>
        <time>2025-04-20T13:10:06Z</time>
      </trkpt>
      <trkpt lat="50.75039" lon="6.00975">
        <ele>236</ele>
        <time>2025-04-20T13:10:17Z</time>
      </trkpt>
      <trkpt lat="50.75031" lon="6.01086">
        <ele>238</ele>
        <time>2025-04-20T13:10:34Z</time>
      </trkpt>
      <trkpt lat="50.75032" lon="6.01135">
        <ele>241</ele>
        <time>2025-04-20T13:10:41Z</time>
      </trkpt>
      <trkpt lat="50.75046" lon="6.01143">
        <ele>241</ele>
        <time>2025-04-20T13:10:44Z</time>
      </trkpt>
      <trkpt lat="50.7506" lon="6.01142">
        <ele>241</ele>
        <time>2025-04-20T13:10:48Z</time>
      </trkpt>
      <trkpt lat="50.75089" lon="6.01358">
        <ele>253</ele>
        <time>2025-04-20T13:11:20Z</time>
      </trkpt>
      <trkpt lat="50.75097" lon="6.01398">
        <ele>255</ele>
        <time>2025-04-20T13:11:26Z</time>
      </trkpt>
      <trkpt lat="50.75225" lon="6.01683">
        <ele>270</ele>
        <time>2025-04-20T13:12:18Z</time>
      </trkpt>
      <trkpt lat="50.75269" lon="6.01766">
        <ele>278</ele>
        <time>2025-04-20T13:12:34Z</time>
      </trkpt>
      <trkpt lat="50.75274" lon="6.01783">
        <ele>281</ele>
        <time>2025-04-20T13:12:37Z</time>
      </trkpt>
      <trkpt lat="50.75275" lon="6.0181">
        <ele>283</ele>
        <time>2025-04-20T13:12:41Z</time>
      </trkpt>
      <trkpt lat="50.75269" lon="6.01829">
        <ele>284</ele>
        <time>2025-04-20T13:12:44Z</time>
      </trkpt>
      <trkpt lat="50.75213" lon="6.01897">
        <ele>290</ele>
        <time>2025-04-20T13:13:00Z</time>
      </trkpt>
      <trkpt lat="50.75207" lon="6.01902">
        <ele>290</ele>
        <time>2025-04-20T13:13:02Z</time>
      </trkpt>
      <trkpt lat="50.75189" lon="6.019">
        <ele>289</ele>
        <time>2025-04-20T13:13:06Z</time>
      </trkpt>
      <trkpt lat="50.75162" lon="6.01881">
        <ele>286</ele>
        <time>2025-04-20T13:13:13Z</time>
      </trkpt>
      <trkpt lat="50.75156" lon="6.01886">
        <ele>287</ele>
        <time>2025-04-20T13:13:15Z</time>
      </trkpt>
      <trkpt lat="50.75155" lon="6.01905">
        <ele>289</ele>
        <time>2025-04-20T13:13:17Z</time>
      </trkpt>
      <trkpt lat="50.75165" lon="6.01918">
        <ele>290</ele>
        <time>2025-04-20T13:13:20Z</time>
      </trkpt>
      <trkpt lat="50.75232" lon="6.01974">
        <ele>302</ele>
        <time>2025-04-20T13:13:38Z</time>
      </trkpt>
      <trkpt lat="50.75244" lon="6.0198">
        <ele>303</ele>
        <time>2025-04-20T13:13:41Z</time>
      </trkpt>
      <trkpt lat="50.75272" lon="6.01974">
        <ele>305</ele>
        <time>2025-04-20T13:13:48Z</time>
      </trkpt>
      <trkpt lat="50.75288" lon="6.01957">
        <ele>305</ele>
        <time>2025-04-20T13:13:52Z</time>
      </trkpt>
      <trkpt lat="50.75362" lon="6.01837">
        <ele>306</ele>
        <time>2025-04-20T13:14:17Z</time>
      </trkpt>
      <trkpt lat="50.75376" lon="6.01797">
        <ele>308</ele>
        <time>2025-04-20T13:14:24Z</time>
      </trkpt>
      <trkpt lat="50.75382" lon="6.01749">
        <ele>307</ele>
        <time>2025-04-20T13:14:31Z</time>
      </trkpt>
      <trkpt lat="50.7539" lon="6.01739">
        <ele>309</ele>
        <time>2025-04-20T13:14:33Z</time>
      </trkpt>
      <trkpt lat="50.75394" lon="6.01742">
        <ele>310</ele>
        <time>2025-04-20T13:14:34Z</time>
      </trkpt>
      <trkpt lat="50.75398" lon="6.01757">
        <ele>311</ele>
        <time>2025-04-20T13:14:37Z</time>
      </trkpt>
      <trkpt lat="50.75399" lon="6.01933">
        <ele>321</ele>
        <time>2025-04-20T13:15:03Z</time>
      </trkpt>
      <trkpt lat="50.75349" lon="6.02098">
        <ele>327</ele>
        <time>2025-04-20T13:15:30Z</time>
      </trkpt>
      <trkpt lat="50.75347" lon="6.02111">
        <ele>328</ele>
        <time>2025-04-20T13:15:32Z</time>
      </trkpt>
      <trkpt lat="50.75351" lon="6.02126">
        <ele>328</ele>
        <time>2025-04-20T13:15:34Z</time>
      </trkpt>
      <trkpt lat="50.75356" lon="6.02128">
        <ele>329</ele>
        <time>2025-04-20T13:15:35Z</time>
      </trkpt>
      <trkpt lat="50.7536" lon="6.02168">
        <ele>330</ele>
        <time>2025-04-20T13:15:41Z</time>
      </trkpt>
      <trkpt lat="50.75376" lon="6.02209">
        <ele>329</ele>
        <time>2025-04-20T13:15:49Z</time>
      </trkpt>
      <trkpt lat="50.7541" lon="6.02254">
        <ele>328</ele>
        <time>2025-04-20T13:15:59Z</time>
      </trkpt>
      <trkpt lat="50.75442" lon="6.02287">
        <ele>327</ele>
        <time>2025-04-20T13:16:08Z</time>
      </trkpt>
      <trkpt lat="50.75476" lon="6.02313">
        <ele>326</ele>
        <time>2025-04-20T13:16:17Z</time>
      </trkpt>
      <trkpt lat="50.75489" lon="6.02331">
        <ele>326</ele>
        <time>2025-04-20T13:16:21Z</time>
      </trkpt>
      <trkpt lat="50.75535" lon="6.02486">
        <ele>320</ele>
        <time>2025-04-20T13:16:46Z</time>
      </trkpt>
      <trkpt lat="50.75561" lon="6.02508">
        <ele>320</ele>
        <time>2025-04-20T13:16:53Z</time>
      </trkpt>
      <trkpt lat="50.75692" lon="6.02583">
        <ele>318</ele>
        <time>2025-04-20T13:17:25Z</time>
      </trkpt>
      <trkpt lat="50.75709" lon="6.02611">
        <ele>315</ele>
        <time>2025-04-20T13:17:31Z</time>
      </trkpt>
      <trkpt lat="50.75745" lon="6.02726">
        <ele>308</ele>
        <time>2025-04-20T13:17:50Z</time>
      </trkpt>
      <trkpt lat="50.75782" lon="6.02864">
        <ele>297</ele>
        <time>2025-04-20T13:18:12Z</time>
      </trkpt>
      <trkpt lat="50.75793" lon="6.02891">
        <ele>294</ele>
        <time>2025-04-20T13:18:17Z</time>
      </trkpt>
      <trkpt lat="50.75824" lon="6.02933">
        <ele>290</ele>
        <time>2025-04-20T13:18:26Z</time>
      </trkpt>
      <trkpt lat="50.75832" lon="6.02948">
        <ele>289</ele>
        <time>2025-04-20T13:18:29Z</time>
      </trkpt>
      <trkpt lat="50.75834" lon="6.02968">
        <ele>287</ele>
        <time>2025-04-20T13:18:32Z</time>
      </trkpt>
      <trkpt lat="50.75829" lon="6.0299">
        <ele>285</ele>
        <time>2025-04-20T13:18:36Z</time>
      </trkpt>
      <trkpt lat="50.75822" lon="6.03001">
        <ele>284</ele>
        <time>2025-04-20T13:18:38Z</time>
      </trkpt>
      <trkpt lat="50.75792" lon="6.03012">
        <ele>282</ele>
        <time>2025-04-20T13:18:45Z</time>
      </trkpt>
      <trkpt lat="50.75776" lon="6.03011">
        <ele>282</ele>
        <time>2025-04-20T13:18:49Z</time>
      </trkpt>
      <trkpt lat="50.75756" lon="6.03002">
        <ele>283</ele>
        <time>2025-04-20T13:18:54Z</time>
      </trkpt>
      <trkpt lat="50.75706" lon="6.0296">
        <ele>283</ele>
        <time>2025-04-20T13:19:07Z</time>
      </trkpt>
      <trkpt lat="50.75693" lon="6.02957">
        <ele>282</ele>
        <time>2025-04-20T13:19:10Z</time>
      </trkpt>
      <trkpt lat="50.75688" lon="6.02994">
        <ele>277</ele>
        <time>2025-04-20T13:19:16Z</time>
      </trkpt>
      <trkpt lat="50.75691" lon="6.03015">
        <ele>275</ele>
        <time>2025-04-20T13:19:19Z</time>
      </trkpt>
      <trkpt lat="50.75712" lon="6.03071">
        <ele>273</ele>
        <time>2025-04-20T13:19:29Z</time>
      </trkpt>
      <trkpt lat="50.75738" lon="6.03116">
        <ele>271</ele>
        <time>2025-04-20T13:19:38Z</time>
      </trkpt>
      <trkpt lat="50.75765" lon="6.03146">
        <ele>269</ele>
        <time>2025-04-20T13:19:45Z</time>
      </trkpt>
      <trkpt lat="50.75782" lon="6.03158">
        <ele>268</ele>
        <time>2025-04-20T13:19:50Z</time>
      </trkpt>
      <trkpt lat="50.75857" lon="6.03176">
        <ele>267</ele>
        <time>2025-04-20T13:20:07Z</time>
      </trkpt>
      <trkpt lat="50.75988" lon="6.03202">
        <ele>263</ele>
        <time>2025-04-20T13:20:38Z</time>
      </trkpt>
      <trkpt lat="50.76012" lon="6.03217">
        <ele>261</ele>
        <time>2025-04-20T13:20:44Z</time>
      </trkpt>
      <trkpt lat="50.76029" lon="6.03396">
        <ele>251</ele>
        <time>2025-04-20T13:21:11Z</time>
      </trkpt>
      <trkpt lat="50.76037" lon="6.03446">
        <ele>248</ele>
        <time>2025-04-20T13:21:19Z</time>
      </trkpt>
      <trkpt lat="50.76043" lon="6.03463">
        <ele>247</ele>
        <time>2025-04-20T13:21:21Z</time>
      </trkpt>
      <trkpt lat="50.7616" lon="6.03692">
        <ele>237</ele>
        <time>2025-04-20T13:22:05Z</time>
      </trkpt>
      <trkpt lat="50.76189" lon="6.03788">
        <ele>233</ele>
        <time>2025-04-20T13:22:21Z</time>
      </trkpt>
      <trkpt lat="50.76215" lon="6.03846">
        <ele>232</ele>
        <time>2025-04-20T13:22:31Z</time>
      </trkpt>
      <trkpt lat="50.76357" lon="6.04114">
        <ele>232</ele>
        <time>2025-04-20T13:23:23Z</time>
      </trkpt>
      <trkpt lat="50.76391" lon="6.04159">
        <ele>230</ele>
        <time>2025-04-20T13:23:33Z</time>
      </trkpt>
      <trkpt lat="50.76418" lon="6.04224">
        <ele>230</ele>
        <time>2025-04-20T13:23:45Z</time>
      </trkpt>
      <trkpt lat="50.76441" lon="6.04316">
        <ele>229</ele>
        <time>2025-04-20T13:23:59Z</time>
      </trkpt>
      <trkpt lat="50.76453" lon="6.04347">
        <ele>227</ele>
        <time>2025-04-20T13:24:05Z</time>
      </trkpt>
      <trkpt lat="50.76499" lon="6.0444">
        <ele>224</ele>
        <time>2025-04-20T13:24:22Z</time>
      </trkpt>
      <trkpt lat="50.76552" lon="6.04531">
        <ele>221</ele>
        <time>2025-04-20T13:24:40Z</time>
      </trkpt>
      <trkpt lat="50.76534" lon="6.04566">
        <ele>222</ele>
        <time>2025-04-20T13:24:47Z</time>
      </trkpt>
      <trkpt lat="50.76543" lon="6.04588">
        <ele>222</ele>
        <time>2025-04-20T13:24:51Z</time>
      </trkpt>
      <trkpt lat="50.76563" lon="6.04625">
        <ele>222</ele>
        <time>2025-04-20T13:24:58Z</time>
      </trkpt>
      <trkpt lat="50.76575" lon="6.04658">
        <ele>223</ele>
        <time>2025-04-20T13:25:04Z</time>
      </trkpt>
      <trkpt lat="50.76583" lon="6.04716">
        <ele>222</ele>
        <time>2025-04-20T13:25:12Z</time>
      </trkpt>
      <trkpt lat="50.76601" lon="6.04773">
        <ele>222</ele>
        <time>2025-04-20T13:25:22Z</time>
      </trkpt>
      <trkpt lat="50.76612" lon="6.04827">
        <ele>222</ele>
        <time>2025-04-20T13:25:30Z</time>
      </trkpt>
      <trkpt lat="50.76611" lon="6.04868">
        <ele>222</ele>
        <time>2025-04-20T13:25:36Z</time>
      </trkpt>
      <trkpt lat="50.76615" lon="6.04972">
        <ele>223</ele>
        <time>2025-04-20T13:25:52Z</time>
      </trkpt>
      <trkpt lat="50.7663" lon="6.05067">
        <ele>222</ele>
        <time>2025-04-20T13:26:06Z</time>
      </trkpt>
      <trkpt lat="50.76655" lon="6.05149">
        <ele>219</ele>
        <time>2025-04-20T13:26:20Z</time>
      </trkpt>
      <trkpt lat="50.76709" lon="6.05293">
        <ele>217</ele>
        <time>2025-04-20T13:26:44Z</time>
      </trkpt>
      <trkpt lat="50.76758" lon="6.05466">
        <ele>213</ele>
        <time>2025-04-20T13:27:12Z</time>
      </trkpt>
      <trkpt lat="50.76767" lon="6.05519">
        <ele>213</ele>
        <time>2025-04-20T13:27:20Z</time>
      </trkpt>
      <trkpt lat="50.76765" lon="6.05553">
        <ele>214</ele>
        <time>2025-04-20T13:27:25Z</time>
      </trkpt>
      <trkpt lat="50.76796" lon="6.05566">
        <ele>212</ele>
        <time>2025-04-20T13:27:33Z</time>
      </trkpt>
      <trkpt lat="50.76877" lon="6.05572">
        <ele>207</ele>
        <time>2025-04-20T13:27:52Z</time>
      </trkpt>
      <trkpt lat="50.76879" lon="6.05551">
        <ele>207</ele>
        <time>2025-04-20T13:27:55Z</time>
      </trkpt>
      <trkpt lat="50.76897" lon="6.05554">
        <ele>207</ele>
        <time>2025-04-20T13:27:59Z</time>
      </trkpt>
      <trkpt lat="50.769" lon="6.05506">
        <ele>207</ele>
        <time>2025-04-20T13:28:06Z</time>
      </trkpt>
      <trkpt lat="50.76911" lon="6.05512">
        <ele>207</ele>
        <time>2025-04-20T13:28:09Z</time>
      </trkpt>
      <trkpt lat="50.76939" lon="6.05545">
        <ele>206</ele>
        <time>2025-04-20T13:28:17Z</time>
      </trkpt>
      <trkpt lat="50.7698" lon="6.05611">
        <ele>204</ele>
        <time>2025-04-20T13:28:31Z</time>
      </trkpt>
      <trkpt lat="50.77011" lon="6.05697">
        <ele>202</ele>
        <time>2025-04-20T13:28:46Z</time>
      </trkpt>
      <trkpt lat="50.77043" lon="6.05704">
        <ele>203</ele>
        <time>2025-04-20T13:28:53Z</time>
      </trkpt>
      <trkpt lat="50.77049" lon="6.05712">
        <ele>203</ele>
        <time>2025-04-20T13:28:55Z</time>
      </trkpt>
      <trkpt lat="50.77051" lon="6.05723">
        <ele>203</ele>
        <time>2025-04-20T13:28:57Z</time>
      </trkpt>
      <trkpt lat="50.77049" lon="6.05753">
        <ele>202</ele>
        <time>2025-04-20T13:29:01Z</time>
      </trkpt>
      <trkpt lat="50.77026" lon="6.05777">
        <ele>201</ele>
        <time>2025-04-20T13:29:07Z</time>
      </trkpt>
      <trkpt lat="50.77026" lon="6.05791">
        <ele>201</ele>
        <time>2025-04-20T13:29:10Z</time>
      </trkpt>
      <trkpt lat="50.77082" lon="6.0595">
        <ele>197</ele>
        <time>2025-04-20T13:29:36Z</time>
      </trkpt>
      <trkpt lat="50.77131" lon="6.06063">
        <ele>196</ele>
        <time>2025-04-20T13:29:57Z</time>
      </trkpt>
      <trkpt lat="50.77175" lon="6.06155">
        <ele>194</ele>
        <time>2025-04-20T13:30:14Z</time>
      </trkpt>
      <trkpt lat="50.77198" lon="6.06215">
        <ele>195</ele>
        <time>2025-04-20T13:30:24Z</time>
      </trkpt>
      <trkpt lat="50.77224" lon="6.06303">
        <ele>196</ele>
        <time>2025-04-20T13:30:38Z</time>
      </trkpt>
      <trkpt lat="50.7723" lon="6.06343">
        <ele>196</ele>
        <time>2025-04-20T13:30:44Z</time>
      </trkpt>
      <trkpt lat="50.77233" lon="6.06432">
        <ele>196</ele>
        <time>2025-04-20T13:30:58Z</time>
      </trkpt>
      <trkpt lat="50.77204" lon="6.06506">
        <ele>196</ele>
        <time>2025-04-20T13:31:11Z</time>
      </trkpt>
      <trkpt lat="50.77203" lon="6.06578">
        <ele>195</ele>
        <time>2025-04-20T13:31:21Z</time>
      </trkpt>
      <trkpt lat="50.77191" lon="6.06636">
        <ele>194</ele>
        <time>2025-04-20T13:31:30Z</time>
      </trkpt>
      <trkpt lat="50.77182" lon="6.06719">
        <ele>196</ele>
        <time>2025-04-20T13:31:43Z</time>
      </trkpt>
      <trkpt lat="50.77178" lon="6.06784">
        <ele>197</ele>
        <time>2025-04-20T13:31:52Z</time>
      </trkpt>
      <trkpt lat="50.77181" lon="6.0682">
        <ele>196</ele>
        <time>2025-04-20T13:31:58Z</time>
      </trkpt>
      <trkpt lat="50.77177" lon="6.06848">
        <ele>196</ele>
        <time>2025-04-20T13:32:02Z</time>
      </trkpt>
      <trkpt lat="50.77183" lon="6.06877">
        <ele>195</ele>
        <time>2025-04-20T13:32:06Z</time>
      </trkpt>
      <trkpt lat="50.77186" lon="6.0695">
        <ele>193</ele>
        <time>2025-04-20T13:32:17Z</time>
      </trkpt>
      <trkpt lat="50.77203" lon="6.06979">
        <ele>192</ele>
        <time>2025-04-20T13:32:23Z</time>
      </trkpt>
      <trkpt lat="50.77207" lon="6.07">
        <ele>192</ele>
        <time>2025-04-20T13:32:26Z</time>
      </trkpt>
      <trkpt lat="50.77205" lon="6.07025">
        <ele>192</ele>
        <time>2025-04-20T13:32:30Z</time>
      </trkpt>
      <trkpt lat="50.77222" lon="6.07037">
        <ele>191</ele>
        <time>2025-04-20T13:32:34Z</time>
      </trkpt>
      <trkpt lat="50.77235" lon="6.0708">
        <ele>191</ele>
        <time>2025-04-20T13:32:41Z</time>
      </trkpt>
      <trkpt lat="50.77231" lon="6.07091">
        <ele>190</ele>
        <time>2025-04-20T13:32:43Z</time>
      </trkpt>
      <trkpt lat="50.77239" lon="6.07097">
        <ele>190</ele>
        <time>2025-04-20T13:32:45Z</time>
      </trkpt>
      <trkpt lat="50.7725" lon="6.07128">
        <ele>189</ele>
        <time>2025-04-20T13:32:51Z</time>
      </trkpt>
      <trkpt lat="50.77376" lon="6.07612">
        <ele>182</ele>
        <time>2025-04-20T13:34:08Z</time>
      </trkpt>
      <trkpt lat="50.77387" lon="6.07617">
        <ele>182</ele>
        <time>2025-04-20T13:34:11Z</time>
      </trkpt>
      <trkpt lat="50.77484" lon="6.07761">
        <ele>177</ele>
        <time>2025-04-20T13:34:42Z</time>
      </trkpt>
      <trkpt lat="50.77396" lon="6.07872">
        <ele>181</ele>
        <time>2025-04-20T13:35:08Z</time>
      </trkpt>
      <trkpt lat="50.77542" lon="6.08146">
        <ele>177</ele>
        <time>2025-04-20T13:36:01Z</time>
      </trkpt>
      <trkpt lat="50.77662" lon="6.08384">
        <ele>178</ele>
        <time>2025-04-20T13:36:46Z</time>
      </trkpt>
      <trkpt lat="50.77609" lon="6.0843">
        <ele>179</ele>
        <time>2025-04-20T13:37:00Z</time>
      </trkpt>
      <trkpt lat="50.77486" lon="6.08443">
        <ele>175</ele>
        <time>2025-04-20T13:37:29Z</time>
      </trkpt>
      <trkpt lat="50.77454" lon="6.08475">
        <ele>173</ele>
        <time>2025-04-20T13:37:37Z</time>
      </trkpt>
      <trkpt lat="50.77444" lon="6.08518">
        <ele>171</ele>
        <time>2025-04-20T13:37:44Z</time>
      </trkpt>
      <trkpt lat="50.77386" lon="6.08596">
        <ele>170</ele>
        <time>2025-04-20T13:38:02Z</time>
      </trkpt>
      <trkpt lat="50.77358" lon="6.08693">
        <ele>168</ele>
        <time>2025-04-20T13:38:18Z</time>
      </trkpt>
      <trkpt lat="50.77359" lon="6.08705">
        <ele>168</ele>
        <time>2025-04-20T13:38:20Z</time>
      </trkpt>
      <trkpt lat="50.77333" lon="6.08788">
        <ele>167</ele>
        <time>2025-04-20T13:38:33Z</time>
      </trkpt>
      <trkpt lat="50.7726" lon="6.08944">
        <ele>168</ele>
        <time>2025-04-20T13:39:02Z</time>
      </trkpt>
      <trkpt lat="50.77255" lon="6.08991">
        <ele>168</ele>
        <time>2025-04-20T13:39:09Z</time>
      </trkpt>
      <trkpt lat="50.7721" lon="6.09196">
        <ele>174</ele>
        <time>2025-04-20T13:39:41Z</time>
      </trkpt>
      <trkpt lat="50.77206" lon="6.09224">
        <ele>174</ele>
        <time>2025-04-20T13:39:45Z</time>
      </trkpt>
      <trkpt lat="50.77159" lon="6.09254">
        <ele>176</ele>
        <time>2025-04-20T13:39:57Z</time>
      </trkpt>
      <trkpt lat="50.77151" lon="6.09308">
        <ele>177</ele>
        <time>2025-04-20T13:40:05Z</time>
      </trkpt>
      <trkpt lat="50.77103" lon="6.09542">
        <ele>173</ele>
        <time>2025-04-20T13:40:42Z</time>
      </trkpt>
      <trkpt lat="50.77073" lon="6.09536">
        <ele>175</ele>
        <time>2025-04-20T13:40:49Z</time>
      </trkpt>
      <trkpt lat="50.77061" lon="6.09531">
        <ele>175</ele>
        <time>2025-04-20T13:40:52Z</time>
      </trkpt>
      <trkpt lat="50.77035" lon="6.09528">
        <ele>175</ele>
        <time>2025-04-20T13:40:58Z</time>
      </trkpt>
      <trkpt lat="50.76979" lon="6.09515">
        <ele>176</ele>
        <time>2025-04-20T13:41:11Z</time>
      </trkpt>
      <trkpt lat="50.76928" lon="6.09508">
        <ele>177</ele>
        <time>2025-04-20T13:41:23Z</time>
      </trkpt>
      <trkpt lat="50.76926" lon="6.09491">
        <ele>178</ele>
        <time>2025-04-20T13:41:25Z</time>
      </trkpt>
      <trkpt lat="50.76891" lon="6.09467">
        <ele>179</ele>
        <time>2025-04-20T13:41:34Z</time>
      </trkpt>
      <trkpt lat="50.76879" lon="6.09482">
        <ele>179</ele>
        <time>2025-04-20T13:41:38Z</time>
      </trkpt>
      <trkpt lat="50.76854" lon="6.09477">
        <ele>180</ele>
        <time>2025-04-20T13:41:44Z</time>
      </trkpt>
      <trkpt lat="50.7685" lon="6.09482">
        <ele>180</ele>
        <time>2025-04-20T13:41:45Z</time>
      </trkpt>
      <trkpt lat="50.7679" lon="6.09477">
        <ele>181</ele>
        <time>2025-04-20T13:41:59Z</time>
      </trkpt>
      <trkpt lat="50.76775" lon="6.095">
        <ele>180</ele>
        <time>2025-04-20T13:42:04Z</time>
      </trkpt>
      <trkpt lat="50.76696" lon="6.09486">
        <ele>181</ele>
        <time>2025-04-20T13:42:22Z</time>
      </trkpt>
      <trkpt lat="50.76683" lon="6.09489">
        <ele>181</ele>
        <time>2025-04-20T13:42:25Z</time>
      </trkpt>
      <trkpt lat="50.76676" lon="6.09507">
        <ele>180</ele>
        <time>2025-04-20T13:42:29Z</time>
      </trkpt>
      <trkpt lat="50.76608" lon="6.09773">
        <ele>179</ele>
        <time>2025-04-20T13:43:11Z</time>
      </trkpt>
      <trkpt lat="50.76614" lon="6.09776">
        <ele>178</ele>
        <time>2025-04-20T13:43:12Z</time>
      </trkpt>
      <trkpt lat="50.76604" lon="6.09817">
        <ele>179</ele>
        <time>2025-04-20T13:43:19Z</time>
      </trkpt>
      <trkpt lat="50.76627" lon="6.09868">
        <ele>179</ele>
        <time>2025-04-20T13:43:28Z</time>
      </trkpt>
      <trkpt lat="50.76624" lon="6.09875">
        <ele>179</ele>
        <time>2025-04-20T13:43:29Z</time>
      </trkpt>
      <trkpt lat="50.76663" lon="6.09895">
        <ele>178</ele>
        <time>2025-04-20T13:43:39Z</time>
      </trkpt>
      <trkpt lat="50.76766" lon="6.1003">
        <ele>173</ele>
        <time>2025-04-20T13:44:10Z</time>
      </trkpt>
      <trkpt lat="50.7669" lon="6.10219">
        <ele>174</ele>
        <time>2025-04-20T13:44:43Z</time>
      </trkpt>
      <trkpt lat="50.76659" lon="6.10219">
        <ele>175</ele>
        <time>2025-04-20T13:44:51Z</time>
      </trkpt>
      <trkpt lat="50.76635" lon="6.10224">
        <ele>176</ele>
        <time>2025-04-20T13:44:56Z</time>
      </trkpt>
      <trkpt lat="50.76615" lon="6.10287">
        <ele>176</ele>
        <time>2025-04-20T13:45:07Z</time>
      </trkpt>
      <trkpt lat="50.76587" lon="6.10479">
        <ele>175</ele>
        <time>2025-04-20T13:45:36Z</time>
      </trkpt>
      <trkpt lat="50.76581" lon="6.10602">
        <ele>175</ele>
        <time>2025-04-20T13:45:54Z</time>
      </trkpt>
      <trkpt lat="50.76587" lon="6.1071">
        <ele>177</ele>
        <time>2025-04-20T13:46:10Z</time>
      </trkpt>
      <trkpt lat="50.76611" lon="6.10844">
        <ele>180</ele>
        <time>2025-04-20T13:46:31Z</time>
      </trkpt>
      <trkpt lat="50.76648" lon="6.10968">
        <ele>180</ele>
        <time>2025-04-20T13:46:51Z</time>
      </trkpt>
      <trkpt lat="50.76714" lon="6.11095">
        <ele>182</ele>
        <time>2025-04-20T13:47:15Z</time>
      </trkpt>
      <trkpt lat="50.76949" lon="6.11484">
        <ele>179</ele>
        <time>2025-04-20T13:48:35Z</time>
      </trkpt>
      <trkpt lat="50.76972" lon="6.11505">
        <ele>178</ele>
        <time>2025-04-20T13:48:41Z</time>
      </trkpt>
      <trkpt lat="50.76979" lon="6.11522">
        <ele>178</ele>
        <time>2025-04-20T13:48:44Z</time>
      </trkpt>
      <trkpt lat="50.76989" lon="6.11529">
        <ele>178</ele>
        <time>2025-04-20T13:48:46Z</time>
      </trkpt>
      <trkpt lat="50.77061" lon="6.11642">
        <ele>179</ele>
        <time>2025-04-20T13:49:10Z</time>
      </trkpt>
      <trkpt lat="50.77025" lon="6.11715">
        <ele>181</ele>
        <time>2025-04-20T13:49:24Z</time>
      </trkpt>
      <trkpt lat="50.77039" lon="6.11724">
        <ele>181</ele>
        <time>2025-04-20T13:49:27Z</time>
      </trkpt>
      <trkpt lat="50.77126" lon="6.11886">
        <ele>184</ele>
        <time>2025-04-20T13:49:59Z</time>
      </trkpt>
      <trkpt lat="50.7722" lon="6.12157">
        <ele>184</ele>
        <time>2025-04-20T13:50:44Z</time>
      </trkpt>
      <trkpt lat="50.77246" lon="6.12269">
        <ele>184</ele>
        <time>2025-04-20T13:51:02Z</time>
      </trkpt>
      <trkpt lat="50.77261" lon="6.12408">
        <ele>186</ele>
        <time>2025-04-20T13:51:23Z</time>
      </trkpt>
      <trkpt lat="50.77272" lon="6.12447">
        <ele>188</ele>
        <time>2025-04-20T13:51:29Z</time>
      </trkpt>
      <trkpt lat="50.77286" lon="6.12667">
        <ele>191</ele>
        <time>2025-04-20T13:52:02Z</time>
      </trkpt>
      <trkpt lat="50.77281" lon="6.12798">
        <ele>190</ele>
        <time>2025-04-20T13:52:21Z</time>
      </trkpt>
      <trkpt lat="50.77267" lon="6.12903">
        <ele>190</ele>
        <time>2025-04-20T13:52:37Z</time>
      </trkpt>
      <trkpt lat="50.7726" lon="6.12943">
        <ele>192</ele>
        <time>2025-04-20T13:52:43Z</time>
      </trkpt>
      <trkpt lat="50.77253" lon="6.12963">
        <ele>193</ele>
        <time>2025-04-20T13:52:46Z</time>
      </trkpt>
      <trkpt lat="50.77173" lon="6.13465">
        <ele>195</ele>
        <time>2025-04-20T13:54:03Z</time>
      </trkpt>
      <trkpt lat="50.77093" lon="6.13946">
        <ele>200</ele>
        <time>2025-04-20T13:55:16Z</time>
      </trkpt>
      <trkpt lat="50.77085" lon="6.13961">
        <ele>200</ele>
        <time>2025-04-20T13:55:19Z</time>
      </trkpt>
      <trkpt lat="50.77064" lon="6.14086">
        <ele>198</ele>
        <time>2025-04-20T13:55:38Z</time>
      </trkpt>
      <trkpt lat="50.77062" lon="6.14145">
        <ele>198</ele>
        <time>2025-04-20T13:55:47Z</time>
      </trkpt>
      <trkpt lat="50.77046" lon="6.14285">
        <ele>199</ele>
        <time>2025-04-20T13:56:08Z</time>
      </trkpt>
      <trkpt lat="50.77036" lon="6.14315">
        <ele>200</ele>
        <time>2025-04-20T13:56:13Z</time>
      </trkpt>
      <trkpt lat="50.77027" lon="6.14496">
        <ele>201</ele>
        <time>2025-04-20T13:56:40Z</time>
      </trkpt>
      <trkpt lat="50.77024" lon="6.14648">
        <ele>201</ele>
        <time>2025-04-20T13:57:02Z</time>
      </trkpt>
      <trkpt lat="50.7703" lon="6.14672">
        <ele>201</ele>
        <time>2025-04-20T13:57:06Z</time>
      </trkpt>
      <trkpt lat="50.77022" lon="6.14827">
        <ele>205</ele>
        <time>2025-04-20T13:57:29Z</time>
      </trkpt>
      <trkpt lat="50.77005" lon="6.14915">
        <ele>207</ele>
        <time>2025-04-20T13:57:43Z</time>
      </trkpt>
      <trkpt lat="50.76995" lon="6.14934">
        <ele>207</ele>
        <time>2025-04-20T13:57:46Z</time>
      </trkpt>
      <trkpt lat="50.76925" lon="6.15276">
        <ele>211</ele>
        <time>2025-04-20T13:58:39Z</time>
      </trkpt>
      <trkpt lat="50.76916" lon="6.1535">
        <ele>211</ele>
        <time>2025-04-20T13:58:51Z</time>
      </trkpt>
      <trkpt lat="50.76908" lon="6.15457">
        <ele>211</ele>
        <time>2025-04-20T13:59:06Z</time>
      </trkpt>
      <trkpt lat="50.76918" lon="6.15861">
        <ele>216</ele>
        <time>2025-04-20T14:00:06Z</time>
      </trkpt>
      <trkpt lat="50.76908" lon="6.16033">
        <ele>218</ele>
        <time>2025-04-20T14:00:32Z</time>
      </trkpt>
      <trkpt lat="50.76881" lon="6.16174">
        <ele>220</ele>
        <time>2025-04-20T14:00:53Z</time>
      </trkpt>
      <trkpt lat="50.76841" lon="6.16302">
        <ele>221</ele>
        <time>2025-04-20T14:01:14Z</time>
      </trkpt>
      <trkpt lat="50.76795" lon="6.16412">
        <ele>222</ele>
        <time>2025-04-20T14:01:34Z</time>
      </trkpt>
      <trkpt lat="50.76762" lon="6.16472">
        <ele>222</ele>
        <time>2025-04-20T14:01:46Z</time>
      </trkpt>
      <trkpt lat="50.76767" lon="6.16479">
        <ele>221</ele>
        <time>2025-04-20T14:01:47Z</time>
      </trkpt>
      <trkpt lat="50.76692" lon="6.16575">
        <ele>220</ele>
        <time>2025-04-20T14:02:10Z</time>
      </trkpt>
      <trkpt lat="50.76627" lon="6.16637">
        <ele>223</ele>
        <time>2025-04-20T14:02:28Z</time>
      </trkpt>
      <trkpt lat="50.76569" lon="6.16675">
        <ele>226</ele>
        <time>2025-04-20T14:02:42Z</time>
      </trkpt>
      <trkpt lat="50.76524" lon="6.16697">
        <ele>226</ele>
        <time>2025-04-20T14:02:53Z</time>
      </trkpt>
      <trkpt lat="50.76454" lon="6.16714">
        <ele>226</ele>
        <time>2025-04-20T14:03:10Z</time>
      </trkpt>
      <trkpt lat="50.76382" lon="6.167">
        <ele>229</ele>
        <time>2025-04-20T14:03:27Z</time>
      </trkpt>
      <trkpt lat="50.76325" lon="6.16667">
        <ele>231</ele>
        <time>2025-04-20T14:03:41Z</time>
      </trkpt>
      <trkpt lat="50.76126" lon="6.16444">
        <ele>234</ele>
        <time>2025-04-20T14:04:38Z</time>
      </trkpt>
      <trkpt lat="50.76095" lon="6.16397">
        <ele>235</ele>
        <time>2025-04-20T14:04:48Z</time>
      </trkpt>
      <trkpt lat="50.75943" lon="6.1606">
        <ele>236</ele>
        <time>2025-04-20T14:05:49Z</time>
      </trkpt>
      <trkpt lat="50.75828" lon="6.15864">
        <ele>238</ele>
        <time>2025-04-20T14:06:28Z</time>
      </trkpt>
      <trkpt lat="50.75782" lon="6.1582">
        <ele>238</ele>
        <time>2025-04-20T14:06:41Z</time>
      </trkpt>
      <trkpt lat="50.75709" lon="6.15779">
        <ele>240</ele>
        <time>2025-04-20T14:06:59Z</time>
      </trkpt>
      <trkpt lat="50.75635" lon="6.15775">
        <ele>242</ele>
        <time>2025-04-20T14:07:16Z</time>
      </trkpt>
      <trkpt lat="50.75616" lon="6.15787">
        <ele>242</ele>
        <time>2025-04-20T14:07:21Z</time>
      </trkpt>
      <trkpt lat="50.75606" lon="6.15784">
        <ele>243</ele>
        <time>2025-04-20T14:07:24Z</time>
      </trkpt>
      <trkpt lat="50.75527" lon="6.158">
        <ele>244</ele>
        <time>2025-04-20T14:07:42Z</time>
      </trkpt>
      <trkpt lat="50.75466" lon="6.15816">
        <ele>245</ele>
        <time>2025-04-20T14:07:57Z</time>
      </trkpt>
      <trkpt lat="50.75415" lon="6.15826">
        <ele>245</ele>
        <time>2025-04-20T14:08:09Z</time>
      </trkpt>
      <trkpt lat="50.75373" lon="6.15843">
        <ele>245</ele>
        <time>2025-04-20T14:08:19Z</time>
      </trkpt>
      <trkpt lat="50.75318" lon="6.15855">
        <ele>245</ele>
        <time>2025-04-20T14:08:32Z</time>
      </trkpt>
      <trkpt lat="50.75259" lon="6.15854">
        <ele>245</ele>
        <time>2025-04-20T14:08:45Z</time>
      </trkpt>
      <trkpt lat="50.75227" lon="6.15857">
        <ele>245</ele>
        <time>2025-04-20T14:08:53Z</time>
      </trkpt>
      <trkpt lat="50.75215" lon="6.15853">
        <ele>245</ele>
        <time>2025-04-20T14:08:56Z</time>
      </trkpt>
      <trkpt lat="50.75207" lon="6.15868">
        <ele>246</ele>
        <time>2025-04-20T14:08:59Z</time>
      </trkpt>
      <trkpt lat="50.75184" lon="6.15865">
        <ele>246</ele>
        <time>2025-04-20T14:09:04Z</time>
      </trkpt>
      <trkpt lat="50.7515" lon="6.15855">
        <ele>247</ele>
        <time>2025-04-20T14:09:12Z</time>
      </trkpt>
      <trkpt lat="50.75111" lon="6.15833">
        <ele>247</ele>
        <time>2025-04-20T14:09:22Z</time>
      </trkpt>
      <trkpt lat="50.75057" lon="6.15787">
        <ele>247</ele>
        <time>2025-04-20T14:09:36Z</time>
      </trkpt>
      <trkpt lat="50.7505" lon="6.15762">
        <ele>247</ele>
        <time>2025-04-20T14:09:40Z</time>
      </trkpt>
      <trkpt lat="50.74956" lon="6.15636">
        <ele>248</ele>
        <time>2025-04-20T14:10:09Z</time>
      </trkpt>
      <trkpt lat="50.74942" lon="6.15634">
        <ele>248</ele>
        <time>2025-04-20T14:10:12Z</time>
      </trkpt>
      <trkpt lat="50.7492" lon="6.15595">
        <ele>249</ele>
        <time>2025-04-20T14:10:20Z</time>
      </trkpt>
      <trkpt lat="50.74772" lon="6.15393">
        <ele>251</ele>
        <time>2025-04-20T14:11:06Z</time>
      </trkpt>
      <trkpt lat="50.74675" lon="6.1527">
        <ele>254</ele>
        <time>2025-04-20T14:11:35Z</time>
      </trkpt>
      <trkpt lat="50.74589" lon="6.15208">
        <ele>254</ele>
        <time>2025-04-20T14:11:57Z</time>
      </trkpt>
      <trkpt lat="50.7441" lon="6.15114">
        <ele>252</ele>
        <time>2025-04-20T14:12:41Z</time>
      </trkpt>
      <trkpt lat="50.74326" lon="6.15094">
        <ele>251</ele>
        <time>2025-04-20T14:13:01Z</time>
      </trkpt>
      <trkpt lat="50.74284" lon="6.15098">
        <ele>252</ele>
        <time>2025-04-20T14:13:11Z</time>
      </trkpt>
      <trkpt lat="50.7421" lon="6.15137">
        <ele>252</ele>
        <time>2025-04-20T14:13:29Z</time>
      </trkpt>
      <trkpt lat="50.74137" lon="6.15216">
        <ele>251</ele>
        <time>2025-04-20T14:13:49Z</time>
      </trkpt>
      <trkpt lat="50.74105" lon="6.1528">
        <ele>253</ele>
        <time>2025-04-20T14:14:01Z</time>
      </trkpt>
      <trkpt lat="50.74068" lon="6.1541">
        <ele>255</ele>
        <time>2025-04-20T14:14:23Z</time>
      </trkpt>
      <trkpt lat="50.74059" lon="6.15518">
        <ele>255</ele>
        <time>2025-04-20T14:14:39Z</time>
      </trkpt>
      <trkpt lat="50.74059" lon="6.15737">
        <ele>254</ele>
        <time>2025-04-20T14:15:11Z</time>
      </trkpt>
      <trkpt lat="50.74051" lon="6.15752">
        <ele>254</ele>
        <time>2025-04-20T14:15:14Z</time>
      </trkpt>
      <trkpt lat="50.74055" lon="6.15777">
        <ele>254</ele>
        <time>2025-04-20T14:15:18Z</time>
      </trkpt>
      <trkpt lat="50.74064" lon="6.15785">
        <ele>254</ele>
        <time>2025-04-20T14:15:20Z</time>
      </trkpt>
      <trkpt lat="50.74057" lon="6.15807">
        <ele>253</ele>
        <time>2025-04-20T14:15:24Z</time>
      </trkpt>
      <trkpt lat="50.74053" lon="6.16205">
        <ele>253</ele>
        <time>2025-04-20T14:16:23Z</time>
      </trkpt>
      <trkpt lat="50.74056" lon="6.1628">
        <ele>250</ele>
        <time>2025-04-20T14:16:34Z</time>
      </trkpt>
      <trkpt lat="50.74087" lon="6.16548">
        <ele>251</ele>
        <time>2025-04-20T14:17:14Z</time>
      </trkpt>
      <trkpt lat="50.7409" lon="6.16603">
        <ele>250</ele>
        <time>2025-04-20T14:17:22Z</time>
      </trkpt>
      <trkpt lat="50.74081" lon="6.16704">
        <ele>242</ele>
        <time>2025-04-20T14:17:37Z</time>
      </trkpt>
      <trkpt lat="50.74066" lon="6.16771">
        <ele>235</ele>
        <time>2025-04-20T14:17:48Z</time>
      </trkpt>
      <trkpt lat="50.74041" lon="6.16843">
        <ele>232</ele>
        <time>2025-04-20T14:18:00Z</time>
      </trkpt>
      <trkpt lat="50.73869" lon="6.17203">
        <ele>245</ele>
        <time>2025-04-20T14:19:06Z</time>
      </trkpt>
      <trkpt lat="50.73799" lon="6.17288">
        <ele>247</ele>
        <time>2025-04-20T14:19:27Z</time>
      </trkpt>
      <trkpt lat="50.73741" lon="6.17328">
        <ele>244</ele>
        <time>2025-04-20T14:19:42Z</time>
      </trkpt>
      <trkpt lat="50.73691" lon="6.17341">
        <ele>242</ele>
        <time>2025-04-20T14:19:54Z</time>
      </trkpt>
      <trkpt lat="50.73656" lon="6.17341">
        <ele>241</ele>
        <time>2025-04-20T14:20:02Z</time>
      </trkpt>
      <trkpt lat="50.73605" lon="6.1733">
        <ele>242</ele>
        <time>2025-04-20T14:20:14Z</time>
      </trkpt>
      <trkpt lat="50.73584" lon="6.17321">
        <ele>243</ele>
        <time>2025-04-20T14:20:19Z</time>
      </trkpt>
      <trkpt lat="50.73565" lon="6.17309">
        <ele>243</ele>
        <time>2025-04-20T14:20:24Z</time>
      </trkpt>
      <trkpt lat="50.73502" lon="6.17257">
        <ele>247</ele>
        <time>2025-04-20T14:20:40Z</time>
      </trkpt>
      <trkpt lat="50.73469" lon="6.17242">
        <ele>250</ele>
        <time>2025-04-20T14:20:48Z</time>
      </trkpt>
      <trkpt lat="50.73424" lon="6.17227">
        <ele>254</ele>
        <time>2025-04-20T14:20:59Z</time>
      </trkpt>
      <trkpt lat="50.7337" lon="6.17226">
        <ele>252</ele>
        <time>2025-04-20T14:21:12Z</time>
      </trkpt>
      <trkpt lat="50.73303" lon="6.17254">
        <ele>247</ele>
        <time>2025-04-20T14:21:28Z</time>
      </trkpt>
      <trkpt lat="50.73252" lon="6.17292">
        <ele>244</ele>
        <time>2025-04-20T14:21:41Z</time>
      </trkpt>
      <trkpt lat="50.73108" lon="6.1749">
        <ele>250</ele>
        <time>2025-04-20T14:22:26Z</time>
      </trkpt>
      <trkpt lat="50.73054" lon="6.17579">
        <ele>250</ele>
        <time>2025-04-20T14:22:44Z</time>
      </trkpt>
      <trkpt lat="50.72983" lon="6.17685">
        <ele>247</ele>
        <time>2025-04-20T14:23:07Z</time>
      </trkpt>
      <trkpt lat="50.72978" lon="6.17709">
        <ele>247</ele>
        <time>2025-04-20T14:23:10Z</time>
      </trkpt>
      <trkpt lat="50.72877" lon="6.17874">
        <ele>245</ele>
        <time>2025-04-20T14:23:44Z</time>
      </trkpt>
      <trkpt lat="50.7286" lon="6.17892">
        <ele>246</ele>
        <time>2025-04-20T14:23:49Z</time>
      </trkpt>
      <trkpt lat="50.72863" lon="6.17901">
        <ele>246</ele>
        <time>2025-04-20T14:23:51Z</time>
      </trkpt>
      <trkpt lat="50.72836" lon="6.17921">
        <ele>247</ele>
        <time>2025-04-20T14:23:58Z</time>
      </trkpt>
      <trkpt lat="50.72834" lon="6.17934">
        <ele>246</ele>
        <time>2025-04-20T14:24:00Z</time>
      </trkpt>
      <trkpt lat="50.7276" lon="6.18034">
        <ele>246</ele>
        <time>2025-04-20T14:24:22Z</time>
      </trkpt>
      <trkpt lat="50.727" lon="6.18142">
        <ele>249</ele>
        <time>2025-04-20T14:24:44Z</time>
      </trkpt>
      <trkpt lat="50.72534" lon="6.18459">
        <ele>239</ele>
        <time>2025-04-20T14:25:44Z</time>
      </trkpt>
      <trkpt lat="50.72516" lon="6.18516">
        <ele>236</ele>
        <time>2025-04-20T14:25:54Z</time>
      </trkpt>
      <trkpt lat="50.72416" lon="6.18883">
        <ele>244</ele>
        <time>2025-04-20T14:26:53Z</time>
      </trkpt>
      <trkpt lat="50.72395" lon="6.18928">
        <ele>242</ele>
        <time>2025-04-20T14:27:01Z</time>
      </trkpt>
      <trkpt lat="50.72353" lon="6.18947">
        <ele>244</ele>
        <time>2025-04-20T14:27:11Z</time>
      </trkpt>
      <trkpt lat="50.72261" lon="6.19032">
        <ele>254</ele>
        <time>2025-04-20T14:27:36Z</time>
      </trkpt>
      <trkpt lat="50.72255" lon="6.19059">
        <ele>255</ele>
        <time>2025-04-20T14:27:40Z</time>
      </trkpt>
      <trkpt lat="50.72202" lon="6.19112">
        <ele>254</ele>
        <time>2025-04-20T14:27:55Z</time>
      </trkpt>
      <trkpt lat="50.72148" lon="6.19189">
        <ele>254</ele>
        <time>2025-04-20T14:28:12Z</time>
      </trkpt>
      <trkpt lat="50.72024" lon="6.19433">
        <ele>251</ele>
        <time>2025-04-20T14:28:58Z</time>
      </trkpt>
      <trkpt lat="50.71974" lon="6.19505">
        <ele>253</ele>
        <time>2025-04-20T14:29:14Z</time>
      </trkpt>
      <trkpt lat="50.7193" lon="6.19546">
        <ele>256</ele>
        <time>2025-04-20T14:29:26Z</time>
      </trkpt>
      <trkpt lat="50.71882" lon="6.19575">
        <ele>258</ele>
        <time>2025-04-20T14:29:38Z</time>
      </trkpt>
      <trkpt lat="50.71827" lon="6.19582">
        <ele>261</ele>
        <time>2025-04-20T14:29:51Z</time>
      </trkpt>
      <trkpt lat="50.71656" lon="6.19571">
        <ele>259</ele>
        <time>2025-04-20T14:30:31Z</time>
      </trkpt>
      <trkpt lat="50.71515" lon="6.1961">
        <ele>260</ele>
        <time>2025-04-20T14:31:04Z</time>
      </trkpt>
      <trkpt lat="50.7144" lon="6.19614">
        <ele>263</ele>
        <time>2025-04-20T14:31:22Z</time>
      </trkpt>
      <trkpt lat="50.71394" lon="6.196">
        <ele>263</ele>
        <time>2025-04-20T14:31:33Z</time>
      </trkpt>
      <trkpt lat="50.71319" lon="6.19549">
        <ele>261</ele>
        <time>2025-04-20T14:31:52Z</time>
      </trkpt>
      <trkpt lat="50.71287" lon="6.19508">
        <ele>261</ele>
        <time>2025-04-20T14:32:02Z</time>
      </trkpt>
      <trkpt lat="50.71266" lon="6.19475">
        <ele>261</ele>
        <time>2025-04-20T14:32:08Z</time>
      </trkpt>
      <trkpt lat="50.71251" lon="6.19446">
        <ele>261</ele>
        <time>2025-04-20T14:32:14Z</time>
      </trkpt>
      <trkpt lat="50.71244" lon="6.19451">
        <ele>260</ele>
        <time>2025-04-20T14:32:16Z</time>
      </trkpt>
      <trkpt lat="50.71222" lon="6.194">
        <ele>260</ele>
        <time>2025-04-20T14:32:25Z</time>
      </trkpt>
      <trkpt lat="50.71184" lon="6.19243">
        <ele>263</ele>
        <time>2025-04-20T14:32:50Z</time>
      </trkpt>
      <trkpt lat="50.71095" lon="6.18986">
        <ele>268</ele>
        <time>2025-04-20T14:33:33Z</time>
      </trkpt>
      <trkpt lat="50.71083" lon="6.18937">
        <ele>268</ele>
        <time>2025-04-20T14:33:41Z</time>
      </trkpt>
      <trkpt lat="50.71056" lon="6.18791">
        <ele>272</ele>
        <time>2025-04-20T14:34:03Z</time>
      </trkpt>
      <trkpt lat="50.7104" lon="6.18733">
        <ele>273</ele>
        <time>2025-04-20T14:34:13Z</time>
      </trkpt>
      <trkpt lat="50.71011" lon="6.18655">
        <ele>273</ele>
        <time>2025-04-20T14:34:26Z</time>
      </trkpt>
      <trkpt lat="50.70969" lon="6.18579">
        <ele>273</ele>
        <time>2025-04-20T14:34:41Z</time>
      </trkpt>
      <trkpt lat="50.70958" lon="6.18562">
        <ele>274</ele>
        <time>2025-04-20T14:34:45Z</time>
      </trkpt>
      <trkpt lat="50.70835" lon="6.18423">
        <ele>275</ele>
        <time>2025-04-20T14:35:20Z</time>
      </trkpt>
      <trkpt lat="50.70791" lon="6.1839">
        <ele>275</ele>
        <time>2025-04-20T14:35:31Z</time>
      </trkpt>
      <trkpt lat="50.70773" lon="6.18383">
        <ele>275</ele>
        <time>2025-04-20T14:35:36Z</time>
      </trkpt>
      <trkpt lat="50.70766" lon="6.18395">
        <ele>275</ele>
        <time>2025-04-20T14:35:38Z</time>
      </trkpt>
      <trkpt lat="50.70756" lon="6.18375">
        <ele>275</ele>
        <time>2025-04-20T14:35:42Z</time>
      </trkpt>
      <trkpt lat="50.70709" lon="6.18347">
        <ele>276</ele>
        <time>2025-04-20T14:35:54Z</time>
      </trkpt>
      <trkpt lat="50.70659" lon="6.18308">
        <ele>277</ele>
        <time>2025-04-20T14:36:07Z</time>
      </trkpt>
      <trkpt lat="50.70524" lon="6.18157">
        <ele>277</ele>
        <time>2025-04-20T14:36:45Z</time>
      </trkpt>
      <trkpt lat="50.70505" lon="6.18149">
        <ele>277</ele>
        <time>2025-04-20T14:36:50Z</time>
      </trkpt>
      <trkpt lat="50.70507" lon="6.18133">
        <ele>277</ele>
        <time>2025-04-20T14:36:52Z</time>
      </trkpt>
      <trkpt lat="50.70554" lon="6.18155">
        <ele>277</ele>
        <time>2025-04-20T14:37:04Z</time>
      </trkpt>
      <trkpt lat="50.70553" lon="6.18148">
        <ele>277</ele>
        <time>2025-04-20T14:37:05Z</time>
      </trkpt>
      <trkpt lat="50.70492" lon="6.18012">
        <ele>275</ele>
        <time>2025-04-20T14:37:29Z</time>
      </trkpt>
      <trkpt lat="50.70464" lon="6.17985">
        <ele>276</ele>
        <time>2025-04-20T14:37:37Z</time>
      </trkpt>
      <trkpt lat="50.70426" lon="6.17911">
        <ele>277</ele>
        <time>2025-04-20T14:37:51Z</time>
      </trkpt>
      <trkpt lat="50.70362" lon="6.1782">
        <ele>276</ele>
        <time>2025-04-20T14:38:11Z</time>
      </trkpt>
      <trkpt lat="50.70339" lon="6.17773">
        <ele>275</ele>
        <time>2025-04-20T14:38:20Z</time>
      </trkpt>
      <trkpt lat="50.70322" lon="6.17716">
        <ele>274</ele>
        <time>2025-04-20T14:38:29Z</time>
      </trkpt>
      <trkpt lat="50.70314" lon="6.17704">
        <ele>275</ele>
        <time>2025-04-20T14:38:32Z</time>
      </trkpt>
      <trkpt lat="50.7029" lon="6.1774">
        <ele>277</ele>
        <time>2025-04-20T14:38:40Z</time>
      </trkpt>
      <trkpt lat="50.70213" lon="6.17607">
        <ele>279</ele>
        <time>2025-04-20T14:39:06Z</time>
      </trkpt>
      <trkpt lat="50.70139" lon="6.17463">
        <ele>278</ele>
        <time>2025-04-20T14:39:34Z</time>
      </trkpt>
      <trkpt lat="50.70041" lon="6.17256">
        <ele>284</ele>
        <time>2025-04-20T14:40:12Z</time>
      </trkpt>
      <trkpt lat="50.70011" lon="6.17185">
        <ele>284</ele>
        <time>2025-04-20T14:40:25Z</time>
      </trkpt>
      <trkpt lat="50.6998" lon="6.1709">
        <ele>284</ele>
        <time>2025-04-20T14:40:40Z</time>
      </trkpt>
      <trkpt lat="50.69957" lon="6.16949">
        <ele>286</ele>
        <time>2025-04-20T14:41:02Z</time>
      </trkpt>
      <trkpt lat="50.69951" lon="6.16857">
        <ele>286</ele>
        <time>2025-04-20T14:41:16Z</time>
      </trkpt>
      <trkpt lat="50.69938" lon="6.16756">
        <ele>286</ele>
        <time>2025-04-20T14:41:31Z</time>
      </trkpt>
      <trkpt lat="50.69913" lon="6.16663">
        <ele>287</ele>
        <time>2025-04-20T14:41:46Z</time>
      </trkpt>
      <trkpt lat="50.69877" lon="6.16583">
        <ele>287</ele>
        <time>2025-04-20T14:42:00Z</time>
      </trkpt>
      <trkpt lat="50.69842" lon="6.16527">
        <ele>288</ele>
        <time>2025-04-20T14:42:12Z</time>
      </trkpt>
      <trkpt lat="50.6979" lon="6.16474">
        <ele>292</ele>
        <time>2025-04-20T14:42:26Z</time>
      </trkpt>
      <trkpt lat="50.69719" lon="6.16429">
        <ele>295</ele>
        <time>2025-04-20T14:42:44Z</time>
      </trkpt>
      <trkpt lat="50.69644" lon="6.16413">
        <ele>294</ele>
        <time>2025-04-20T14:43:02Z</time>
      </trkpt>
      <trkpt lat="50.69473" lon="6.16391">
        <ele>294</ele>
        <time>2025-04-20T14:43:42Z</time>
      </trkpt>
      <trkpt lat="50.69406" lon="6.16387">
        <ele>292</ele>
        <time>2025-04-20T14:43:58Z</time>
      </trkpt>
      <trkpt lat="50.69239" lon="6.16406">
        <ele>294</ele>
        <time>2025-04-20T14:44:37Z</time>
      </trkpt>
      <trkpt lat="50.69154" lon="6.16413">
        <ele>293</ele>
        <time>2025-04-20T14:44:57Z</time>
      </trkpt>
      <trkpt lat="50.69105" lon="6.16409">
        <ele>293</ele>
        <time>2025-04-20T14:45:08Z</time>
      </trkpt>
      <trkpt lat="50.69032" lon="6.16373">
        <ele>293</ele>
        <time>2025-04-20T14:45:26Z</time>
      </trkpt>
      <trkpt lat="50.68999" lon="6.16351">
        <ele>292</ele>
        <time>2025-04-20T14:45:34Z</time>
      </trkpt>
      <trkpt lat="50.6886" lon="6.16226">
        <ele>297</ele>
        <time>2025-04-20T14:46:12Z</time>
      </trkpt>
      <trkpt lat="50.68772" lon="6.16198">
        <ele>300</ele>
        <time>2025-04-20T14:46:33Z</time>
      </trkpt>
      <trkpt lat="50.68663" lon="6.162">
        <ele>304</ele>
        <time>2025-04-20T14:46:58Z</time>
      </trkpt>
      <trkpt lat="50.68592" lon="6.16187">
        <ele>307</ele>
        <time>2025-04-20T14:47:15Z</time>
      </trkpt>
      <trkpt lat="50.68542" lon="6.16147">
        <ele>308</ele>
        <time>2025-04-20T14:47:28Z</time>
      </trkpt>
      <trkpt lat="50.68325" lon="6.15883">
        <ele>312</ele>
        <time>2025-04-20T14:48:32Z</time>
      </trkpt>
      <trkpt lat="50.68247" lon="6.15824">
        <ele>314</ele>
        <time>2025-04-20T14:48:52Z</time>
      </trkpt>
      <trkpt lat="50.68124" lon="6.15771">
        <ele>316</ele>
        <time>2025-04-20T14:49:22Z</time>
      </trkpt>
      <trkpt lat="50.68054" lon="6.15735">
        <ele>317</ele>
        <time>2025-04-20T14:49:39Z</time>
      </trkpt>
      <trkpt lat="50.67964" lon="6.15651">
        <ele>319</ele>
        <time>2025-04-20T14:50:03Z</time>
      </trkpt>
      <trkpt lat="50.67875" lon="6.15517">
        <ele>321</ele>
        <time>2025-04-20T14:50:32Z</time>
      </trkpt>
      <trkpt lat="50.67628" lon="6.1521">
        <ele>327</ele>
        <time>2025-04-20T14:51:46Z</time>
      </trkpt>
      <trkpt lat="50.6757" lon="6.15064">
        <ele>328</ele>
        <time>2025-04-20T14:52:11Z</time>
      </trkpt>
      <trkpt lat="50.67518" lon="6.14878">
        <ele>328</ele>
        <time>2025-04-20T14:52:41Z</time>
      </trkpt>
      <trkpt lat="50.67478" lon="6.14766">
        <ele>330</ele>
        <time>2025-04-20T14:53:00Z</time>
      </trkpt>
      <trkpt lat="50.67379" lon="6.14585">
        <ele>332</ele>
        <time>2025-04-20T14:53:36Z</time>
      </trkpt>
      <trkpt lat="50.67209" lon="6.14303">
        <ele>328</ele>
        <time>2025-04-20T14:54:33Z</time>
      </trkpt>
      <trkpt lat="50.67112" lon="6.14136">
        <ele>330</ele>
        <time>2025-04-20T14:55:07Z</time>
      </trkpt>
      <trkpt lat="50.66959" lon="6.13813">
        <ele>334</ele>
        <time>2025-04-20T14:56:06Z</time>
      </trkpt>
      <trkpt lat="50.66896" lon="6.13687">
        <ele>336</ele>
        <time>2025-04-20T14:56:30Z</time>
      </trkpt>
      <trkpt lat="50.66821" lon="6.13523">
        <ele>338</ele>
        <time>2025-04-20T14:57:00Z</time>
      </trkpt>
      <trkpt lat="50.6663" lon="6.13088">
        <ele>338</ele>
        <time>2025-04-20T14:58:18Z</time>
      </trkpt>
      <trkpt lat="50.66494" lon="6.1277">
        <ele>339</ele>
        <time>2025-04-20T14:59:15Z</time>
      </trkpt>
      <trkpt lat="50.66483" lon="6.1277">
        <ele>340</ele>
        <time>2025-04-20T14:59:18Z</time>
      </trkpt>
      <trkpt lat="50.6645" lon="6.12668">
        <ele>340</ele>
        <time>2025-04-20T14:59:35Z</time>
      </trkpt>
      <trkpt lat="50.66341" lon="6.12388">
        <ele>342</ele>
        <time>2025-04-20T15:00:23Z</time>
      </trkpt>
      <trkpt lat="50.66266" lon="6.12225">
        <ele>344</ele>
        <time>2025-04-20T15:00:53Z</time>
      </trkpt>
      <trkpt lat="50.66243" lon="6.1219">
        <ele>345</ele>
        <time>2025-04-20T15:01:01Z</time>
      </trkpt>
      <trkpt lat="50.66192" lon="6.12138">
        <ele>345</ele>
        <time>2025-04-20T15:01:15Z</time>
      </trkpt>
      <trkpt lat="50.6616" lon="6.12116">
        <ele>344</ele>
        <time>2025-04-20T15:01:23Z</time>
      </trkpt>
      <trkpt lat="50.6609" lon="6.12095">
        <ele>343</ele>
        <time>2025-04-20T15:01:40Z</time>
      </trkpt>
      <trkpt lat="50.66036" lon="6.12099">
        <ele>345</ele>
        <time>2025-04-20T15:01:52Z</time>
      </trkpt>
      <trkpt lat="50.65981" lon="6.12118">
        <ele>348</ele>
        <time>2025-04-20T15:02:05Z</time>
      </trkpt>
      <trkpt lat="50.65916" lon="6.12171">
        <ele>351</ele>
        <time>2025-04-20T15:02:22Z</time>
      </trkpt>
      <trkpt lat="50.65865" lon="6.12245">
        <ele>351</ele>
        <time>2025-04-20T15:02:39Z</time>
      </trkpt>
      <trkpt lat="50.65833" lon="6.12327">
        <ele>354</ele>
        <time>2025-04-20T15:02:53Z</time>
      </trkpt>
      <trkpt lat="50.65813" lon="6.12431">
        <ele>356</ele>
        <time>2025-04-20T15:03:09Z</time>
      </trkpt>
      <trkpt lat="50.65805" lon="6.12529">
        <ele>357</ele>
        <time>2025-04-20T15:03:24Z</time>
      </trkpt>
      <trkpt lat="50.65818" lon="6.1265">
        <ele>359</ele>
        <time>2025-04-20T15:03:42Z</time>
      </trkpt>
      <trkpt lat="50.65845" lon="6.1273">
        <ele>360</ele>
        <time>2025-04-20T15:03:55Z</time>
      </trkpt>
      <trkpt lat="50.65904" lon="6.12876">
        <ele>358</ele>
        <time>2025-04-20T15:04:21Z</time>
      </trkpt>
      <trkpt lat="50.65931" lon="6.12951">
        <ele>357</ele>
        <time>2025-04-20T15:04:34Z</time>
      </trkpt>
      <trkpt lat="50.65949" lon="6.13029">
        <ele>358</ele>
        <time>2025-04-20T15:04:46Z</time>
      </trkpt>
      <trkpt lat="50.65972" lon="6.13147">
        <ele>361</ele>
        <time>2025-04-20T15:05:04Z</time>
      </trkpt>
      <trkpt lat="50.65978" lon="6.13285">
        <ele>363</ele>
        <time>2025-04-20T15:05:25Z</time>
      </trkpt>
      <trkpt lat="50.65977" lon="6.13369">
        <ele>362</ele>
        <time>2025-04-20T15:05:37Z</time>
      </trkpt>
      <trkpt lat="50.65972" lon="6.1344">
        <ele>362</ele>
        <time>2025-04-20T15:05:48Z</time>
      </trkpt>
      <trkpt lat="50.6594" lon="6.1369">
        <ele>366</ele>
        <time>2025-04-20T15:06:25Z</time>
      </trkpt>
      <trkpt lat="50.65902" lon="6.13877">
        <ele>365</ele>
        <time>2025-04-20T15:06:54Z</time>
      </trkpt>
      <trkpt lat="50.65809" lon="6.14105">
        <ele>370</ele>
        <time>2025-04-20T15:07:35Z</time>
      </trkpt>
      <trkpt lat="50.65721" lon="6.1433">
        <ele>373</ele>
        <time>2025-04-20T15:08:14Z</time>
      </trkpt>
      <trkpt lat="50.65696" lon="6.14506">
        <ele>377</ele>
        <time>2025-04-20T15:08:40Z</time>
      </trkpt>
      <trkpt lat="50.65707" lon="6.14672">
        <ele>377</ele>
        <time>2025-04-20T15:09:05Z</time>
      </trkpt>
      <trkpt lat="50.65849" lon="6.15428">
        <ele>375</ele>
        <time>2025-04-20T15:11:02Z</time>
      </trkpt>
      <trkpt lat="50.6587" lon="6.15548">
        <ele>377</ele>
        <time>2025-04-20T15:11:20Z</time>
      </trkpt>
      <trkpt lat="50.65867" lon="6.15573">
        <ele>378</ele>
        <time>2025-04-20T15:11:24Z</time>
      </trkpt>
      <trkpt lat="50.65886" lon="6.15592">
        <ele>379</ele>
        <time>2025-04-20T15:11:29Z</time>
      </trkpt>
      <trkpt lat="50.65889" lon="6.15633">
        <ele>380</ele>
        <time>2025-04-20T15:11:35Z</time>
      </trkpt>
      <trkpt lat="50.66015" lon="6.15946">
        <ele>382</ele>
        <time>2025-04-20T15:12:30Z</time>
      </trkpt>
      <trkpt lat="50.66072" lon="6.16197">
        <ele>384</ele>
        <time>2025-04-20T15:13:10Z</time>
      </trkpt>
      <trkpt lat="50.6611" lon="6.1633">
        <ele>389</ele>
        <time>2025-04-20T15:13:31Z</time>
      </trkpt>
      <trkpt lat="50.66171" lon="6.16478">
        <ele>389</ele>
        <time>2025-04-20T15:13:58Z</time>
      </trkpt>
      <trkpt lat="50.66205" lon="6.16609">
        <ele>390</ele>
        <time>2025-04-20T15:14:19Z</time>
      </trkpt>
      <trkpt lat="50.66256" lon="6.17166">
        <ele>395</ele>
        <time>2025-04-20T15:15:42Z</time>
      </trkpt>
      <trkpt lat="50.66258" lon="6.17232">
        <ele>395</ele>
        <time>2025-04-20T15:15:52Z</time>
      </trkpt>
      <trkpt lat="50.66247" lon="6.17473">
        <ele>400</ele>
        <time>2025-04-20T15:16:27Z</time>
      </trkpt>
      <trkpt lat="50.66329" lon="6.18251">
        <ele>404</ele>
        <time>2025-04-20T15:18:24Z</time>
      </trkpt>
      <trkpt lat="50.66411" lon="6.18547">
        <ele>405</ele>
        <time>2025-04-20T15:19:12Z</time>
      </trkpt>
      <trkpt lat="50.66435" lon="6.18657">
        <ele>406</ele>
        <time>2025-04-20T15:19:29Z</time>
      </trkpt>
      <trkpt lat="50.66444" lon="6.1879">
        <ele>408</ele>
        <time>2025-04-20T15:19:49Z</time>
      </trkpt>
      <trkpt lat="50.66433" lon="6.19059">
        <ele>413</ele>
        <time>2025-04-20T15:20:29Z</time>
      </trkpt>
      <trkpt lat="50.66425" lon="6.19175">
        <ele>413</ele>
        <time>2025-04-20T15:20:46Z</time>
      </trkpt>
      <trkpt lat="50.66401" lon="6.19289">
        <ele>414</ele>
        <time>2025-04-20T15:21:04Z</time>
      </trkpt>
      <trkpt lat="50.66366" lon="6.19364">
        <ele>415</ele>
        <time>2025-04-20T15:21:18Z</time>
      </trkpt>
      <trkpt lat="50.66333" lon="6.19416">
        <ele>415</ele>
        <time>2025-04-20T15:21:29Z</time>
      </trkpt>
      <trkpt lat="50.66283" lon="6.19473">
        <ele>417</ele>
        <time>2025-04-20T15:21:43Z</time>
      </trkpt>
      <trkpt lat="50.66132" lon="6.19547">
        <ele>417</ele>
        <time>2025-04-20T15:22:20Z</time>
      </trkpt>
      <trkpt lat="50.65969" lon="6.19619">
        <ele>421</ele>
        <time>2025-04-20T15:22:59Z</time>
      </trkpt>
      <trkpt lat="50.65858" lon="6.19642">
        <ele>419</ele>
        <time>2025-04-20T15:23:26Z</time>
      </trkpt>
      <trkpt lat="50.65798" lon="6.19627">
        <ele>416</ele>
        <time>2025-04-20T15:23:40Z</time>
      </trkpt>
      <trkpt lat="50.65734" lon="6.19588">
        <ele>415</ele>
        <time>2025-04-20T15:23:56Z</time>
      </trkpt>
      <trkpt lat="50.65691" lon="6.19536">
        <ele>414</ele>
        <time>2025-04-20T15:24:08Z</time>
      </trkpt>
      <trkpt lat="50.65386" lon="6.19017">
        <ele>415</ele>
        <time>2025-04-20T15:25:53Z</time>
      </trkpt>
      <trkpt lat="50.65278" lon="6.1884">
        <ele>416</ele>
        <time>2025-04-20T15:26:30Z</time>
      </trkpt>
      <trkpt lat="50.65181" lon="6.18695">
        <ele>417</ele>
        <time>2025-04-20T15:27:01Z</time>
      </trkpt>
      <trkpt lat="50.65106" lon="6.1861">
        <ele>415</ele>
        <time>2025-04-20T15:27:22Z</time>
      </trkpt>
      <trkpt lat="50.65012" lon="6.18543">
        <ele>415</ele>
        <time>2025-04-20T15:27:46Z</time>
      </trkpt>
      <trkpt lat="50.64809" lon="6.18415">
        <ele>417</ele>
        <time>2025-04-20T15:28:38Z</time>
      </trkpt>
      <trkpt lat="50.64787" lon="6.18418">
        <ele>417</ele>
        <time>2025-04-20T15:28:43Z</time>
      </trkpt>
      <trkpt lat="50.64783" lon="6.18383">
        <ele>417</ele>
        <time>2025-04-20T15:28:48Z</time>
      </trkpt>
      <trkpt lat="50.64758" lon="6.18393">
        <ele>417</ele>
        <time>2025-04-20T15:28:54Z</time>
      </trkpt>
      <trkpt lat="50.64704" lon="6.18366">
        <ele>417</ele>
        <time>2025-04-20T15:29:07Z</time>
      </trkpt>
      <trkpt lat="50.64645" lon="6.18352">
        <ele>417</ele>
        <time>2025-04-20T15:29:21Z</time>
      </trkpt>
      <trkpt lat="50.64591" lon="6.18353">
        <ele>416</ele>
        <time>2025-04-20T15:29:34Z</time>
      </trkpt>
      <trkpt lat="50.64504" lon="6.18378">
        <ele>413</ele>
        <time>2025-04-20T15:29:54Z</time>
      </trkpt>
      <trkpt lat="50.64227" lon="6.18467">
        <ele>417</ele>
        <time>2025-04-20T15:31:00Z</time>
      </trkpt>
      <trkpt lat="50.64153" lon="6.18522">
        <ele>419</ele>
        <time>2025-04-20T15:31:20Z</time>
      </trkpt>
      <trkpt lat="50.64105" lon="6.18572">
        <ele>421</ele>
        <time>2025-04-20T15:31:33Z</time>
      </trkpt>
      <trkpt lat="50.6405" lon="6.18667">
        <ele>424</ele>
        <time>2025-04-20T15:31:52Z</time>
      </trkpt>
      <trkpt lat="50.64029" lon="6.18715">
        <ele>425</ele>
        <time>2025-04-20T15:32:01Z</time>
      </trkpt>
      <trkpt lat="50.63994" lon="6.18831">
        <ele>429</ele>
        <time>2025-04-20T15:32:20Z</time>
      </trkpt>
      <trkpt lat="50.6397" lon="6.18978">
        <ele>432</ele>
        <time>2025-04-20T15:32:42Z</time>
      </trkpt>
      <trkpt lat="50.63968" lon="6.19076">
        <ele>435</ele>
        <time>2025-04-20T15:32:57Z</time>
      </trkpt>
      <trkpt lat="50.63981" lon="6.19219">
        <ele>437</ele>
        <time>2025-04-20T15:33:18Z</time>
      </trkpt>
      <trkpt lat="50.64039" lon="6.194">
        <ele>440</ele>
        <time>2025-04-20T15:33:48Z</time>
      </trkpt>
      <trkpt lat="50.64041" lon="6.19417">
        <ele>438.1</ele>
        <time>2025-04-20T15:33:54Z</time>
      </trkpt>
      <trkpt lat="50.63954" lon="6.19644">
        <ele>450.6</ele>
      </trkpt>
      <trkpt lat="50.63851" lon="6.19945">
        <ele>455.4</ele>
      </trkpt>
      <trkpt lat="50.63658" lon="6.20514">
        <ele>465.3</ele>
      </trkpt>
      <trkpt lat="50.63492" lon="6.20994">
        <ele>480.2</ele>
      </trkpt>
      <trkpt lat="50.63378" lon="6.21328">
        <ele>488.3</ele>
      </trkpt>
      <trkpt lat="50.63196" lon="6.21868">
        <ele>504</ele>
      </trkpt>
      <trkpt lat="50.63049" lon="6.22285">
        <ele>520.3</ele>
      </trkpt>
      <trkpt lat="50.62888" lon="6.22754">
        <ele>534</ele>
      </trkpt>
      <trkpt lat="50.62705" lon="6.23288">
        <ele>560</ele>
      </trkpt>
      <trkpt lat="50.62646" lon="6.23454">
        <ele>566.8</ele>
      </trkpt>
      <trkpt lat="50.62628" lon="6.23444">
        <ele>567</ele>
      </trkpt>
      <trkpt lat="50.62612" lon="6.23496">
        <ele>568</ele>
      </trkpt>
      <trkpt lat="50.6257" lon="6.2359">
        <ele>570.1</ele>
      </trkpt>
      <trkpt lat="50.62527" lon="6.23644">
        <ele>574</ele>
      </trkpt>
      <trkpt lat="50.62402" lon="6.23717">
        <ele>572.6</ele>
      </trkpt>
      <trkpt lat="50.62114" lon="6.23856">
        <ele>568.5</ele>
      </trkpt>
      <trkpt lat="50.61714" lon="6.24049">
        <ele>570.8</ele>
      </trkpt>
      <trkpt lat="50.61323" lon="6.24234">
        <ele>576.2</ele>
      </trkpt>
      <trkpt lat="50.60961" lon="6.24411">
        <ele>575.6</ele>
      </trkpt>
      <trkpt lat="50.60439" lon="6.24669">
        <ele>551.6</ele>
        <time>2025-04-20T16:13:35Z</time>
      </trkpt>
      <trkpt lat="50.60333" lon="6.24719">
        <ele>551</ele>
        <time>2025-04-20T16:14:01Z</time>
      </trkpt>
      <trkpt lat="50.60302" lon="6.24737">
        <ele>550</ele>
        <time>2025-04-20T16:14:09Z</time>
      </trkpt>
      <trkpt lat="50.60282" lon="6.24736">
        <ele>550</ele>
        <time>2025-04-20T16:14:14Z</time>
      </trkpt>
      <trkpt lat="50.60245" lon="6.24742">
        <ele>550</ele>
        <time>2025-04-20T16:14:22Z</time>
      </trkpt>
      <trkpt lat="50.60206" lon="6.24754">
        <ele>550</ele>
        <time>2025-04-20T16:14:32Z</time>
      </trkpt>
      <trkpt lat="50.6012" lon="6.24787">
        <ele>552</ele>
        <time>2025-04-20T16:14:52Z</time>
      </trkpt>
      <trkpt lat="50.59901" lon="6.24886">
        <ele>552</ele>
        <time>2025-04-20T16:15:45Z</time>
      </trkpt>
      <trkpt lat="50.59853" lon="6.249">
        <ele>551</ele>
        <time>2025-04-20T16:15:57Z</time>
      </trkpt>
      <trkpt lat="50.59804" lon="6.24903">
        <ele>551</ele>
        <time>2025-04-20T16:16:08Z</time>
      </trkpt>
      <trkpt lat="50.5976" lon="6.24892">
        <ele>549</ele>
        <time>2025-04-20T16:16:19Z</time>
      </trkpt>
      <trkpt lat="50.59715" lon="6.2487">
        <ele>549</ele>
        <time>2025-04-20T16:16:30Z</time>
      </trkpt>
      <trkpt lat="50.59622" lon="6.24805">
        <ele>547</ele>
        <time>2025-04-20T16:16:53Z</time>
      </trkpt>
      <trkpt lat="50.59507" lon="6.24719">
        <ele>550</ele>
        <time>2025-04-20T16:17:23Z</time>
      </trkpt>
      <trkpt lat="50.59404" lon="6.24638">
        <ele>548</ele>
        <time>2025-04-20T16:17:50Z</time>
      </trkpt>
      <trkpt lat="50.59361" lon="6.24597">
        <ele>546</ele>
        <time>2025-04-20T16:18:02Z</time>
      </trkpt>
      <trkpt lat="50.59263" lon="6.24467">
        <ele>543</ele>
        <time>2025-04-20T16:18:32Z</time>
      </trkpt>
      <trkpt lat="50.59153" lon="6.24353">
        <ele>545</ele>
        <time>2025-04-20T16:19:03Z</time>
      </trkpt>
      <trkpt lat="50.59048" lon="6.24275">
        <ele>542</ele>
        <time>2025-04-20T16:19:30Z</time>
      </trkpt>
      <trkpt lat="50.58684" lon="6.24056">
        <ele>538</ele>
        <time>2025-04-20T16:21:01Z</time>
      </trkpt>
      <trkpt lat="50.58556" lon="6.23991">
        <ele>536</ele>
        <time>2025-04-20T16:21:32Z</time>
      </trkpt>
      <trkpt lat="50.58468" lon="6.23963">
        <ele>535</ele>
        <time>2025-04-20T16:21:53Z</time>
      </trkpt>
      <trkpt lat="50.58194" lon="6.23912">
        <ele>532</ele>
        <time>2025-04-20T16:22:57Z</time>
      </trkpt>
      <trkpt lat="50.58133" lon="6.23898">
        <ele>532</ele>
        <time>2025-04-20T16:23:12Z</time>
      </trkpt>
      <trkpt lat="50.57847" lon="6.23942">
        <ele>527</ele>
        <time>2025-04-20T16:24:19Z</time>
      </trkpt>
      <trkpt lat="50.57715" lon="6.2393">
        <ele>527</ele>
        <time>2025-04-20T16:24:50Z</time>
      </trkpt>
      <trkpt lat="50.57562" lon="6.23855">
        <ele>524</ele>
        <time>2025-04-20T16:25:27Z</time>
      </trkpt>
      <trkpt lat="50.5746" lon="6.23799">
        <ele>523</ele>
        <time>2025-04-20T16:25:52Z</time>
      </trkpt>
      <trkpt lat="50.57297" lon="6.23658">
        <ele>523</ele>
        <time>2025-04-20T16:26:36Z</time>
      </trkpt>
      <trkpt lat="50.57245" lon="6.23629">
        <ele>524</ele>
        <time>2025-04-20T16:26:49Z</time>
      </trkpt>
      <trkpt lat="50.57181" lon="6.23619">
        <ele>523</ele>
        <time>2025-04-20T16:27:04Z</time>
      </trkpt>
      <trkpt lat="50.57108" lon="6.23622">
        <ele>522</ele>
        <time>2025-04-20T16:27:21Z</time>
      </trkpt>
      <trkpt lat="50.56947" lon="6.23616">
        <ele>516</ele>
        <time>2025-04-20T16:27:58Z</time>
      </trkpt>
      <trkpt lat="50.56766" lon="6.23622">
        <ele>517</ele>
        <time>2025-04-20T16:28:41Z</time>
      </trkpt>
      <trkpt lat="50.56707" lon="6.23619">
        <ele>520</ele>
        <time>2025-04-20T16:28:55Z</time>
      </trkpt>
      <trkpt lat="50.56642" lon="6.23601">
        <ele>522</ele>
        <time>2025-04-20T16:29:10Z</time>
      </trkpt>
      <trkpt lat="50.56542" lon="6.23511">
        <ele>523</ele>
        <time>2025-04-20T16:29:37Z</time>
      </trkpt>
      <trkpt lat="50.56488" lon="6.23428">
        <ele>522</ele>
        <time>2025-04-20T16:29:54Z</time>
      </trkpt>
      <trkpt lat="50.56402" lon="6.23218">
        <ele>517</ele>
        <time>2025-04-20T16:30:32Z</time>
      </trkpt>
      <trkpt lat="50.56316" lon="6.22989">
        <ele>514</ele>
        <time>2025-04-20T16:31:11Z</time>
      </trkpt>
      <trkpt lat="50.56177" lon="6.2274">
        <ele>521</ele>
        <time>2025-04-20T16:32:00Z</time>
      </trkpt>
      <trkpt lat="50.56074" lon="6.22669">
        <ele>524</ele>
        <time>2025-04-20T16:32:26Z</time>
      </trkpt>
      <trkpt lat="50.56006" lon="6.2266">
        <ele>523</ele>
        <time>2025-04-20T16:32:42Z</time>
      </trkpt>
      <trkpt lat="50.55752" lon="6.22662">
        <ele>520</ele>
        <time>2025-04-20T16:33:42Z</time>
      </trkpt>
      <trkpt lat="50.55664" lon="6.22646">
        <ele>520</ele>
        <time>2025-04-20T16:34:02Z</time>
      </trkpt>
      <trkpt lat="50.55601" lon="6.22602">
        <ele>523</ele>
        <time>2025-04-20T16:34:18Z</time>
      </trkpt>
      <trkpt lat="50.55535" lon="6.22515">
        <ele>529</ele>
        <time>2025-04-20T16:34:39Z</time>
      </trkpt>
      <trkpt lat="50.55492" lon="6.22411">
        <ele>532</ele>
        <time>2025-04-20T16:34:57Z</time>
      </trkpt>
      <trkpt lat="50.55475" lon="6.22311">
        <ele>532</ele>
        <time>2025-04-20T16:35:12Z</time>
      </trkpt>
      <trkpt lat="50.55471" lon="6.22182">
        <ele>530</ele>
        <time>2025-04-20T16:35:31Z</time>
      </trkpt>
      <trkpt lat="50.55492" lon="6.22068">
        <ele>530</ele>
        <time>2025-04-20T16:35:49Z</time>
      </trkpt>
      <trkpt lat="50.55589" lon="6.21863">
        <ele>525</ele>
        <time>2025-04-20T16:36:27Z</time>
      </trkpt>
      <trkpt lat="50.55622" lon="6.21767">
        <ele>522</ele>
        <time>2025-04-20T16:36:43Z</time>
      </trkpt>
      <trkpt lat="50.55643" lon="6.21671">
        <ele>523</ele>
        <time>2025-04-20T16:36:58Z</time>
      </trkpt>
      <trkpt lat="50.55641" lon="6.21542">
        <ele>526</ele>
        <time>2025-04-20T16:37:17Z</time>
      </trkpt>
      <trkpt lat="50.55624" lon="6.21448">
        <ele>528</ele>
        <time>2025-04-20T16:37:32Z</time>
      </trkpt>
      <trkpt lat="50.5561" lon="6.21393">
        <ele>529</ele>
        <time>2025-04-20T16:37:41Z</time>
      </trkpt>
      <trkpt lat="50.55512" lon="6.21178">
        <ele>529</ele>
        <time>2025-04-20T16:38:20Z</time>
      </trkpt>
      <trkpt lat="50.5546" lon="6.21082">
        <ele>529</ele>
        <time>2025-04-20T16:38:39Z</time>
      </trkpt>
      <trkpt lat="50.55378" lon="6.21">
        <ele>529</ele>
        <time>2025-04-20T16:39:01Z</time>
      </trkpt>
      <trkpt lat="50.55322" lon="6.20977">
        <ele>530</ele>
        <time>2025-04-20T16:39:15Z</time>
      </trkpt>
      <trkpt lat="50.55274" lon="6.20971">
        <ele>531</ele>
        <time>2025-04-20T16:39:26Z</time>
      </trkpt>
      <trkpt lat="50.55192" lon="6.2097">
        <ele>525</ele>
        <time>2025-04-20T16:39:45Z</time>
      </trkpt>
      <trkpt lat="50.55127" lon="6.20947">
        <ele>518</ele>
        <time>2025-04-20T16:40:01Z</time>
      </trkpt>
      <trkpt lat="50.55076" lon="6.20913">
        <ele>518</ele>
        <time>2025-04-20T16:40:14Z</time>
      </trkpt>
      <trkpt lat="50.54968" lon="6.2081">
        <ele>522</ele>
        <time>2025-04-20T16:40:43Z</time>
      </trkpt>
      <trkpt lat="50.54897" lon="6.20767">
        <ele>521</ele>
        <time>2025-04-20T16:41:01Z</time>
      </trkpt>
      <trkpt lat="50.54843" lon="6.20761">
        <ele>519</ele>
        <time>2025-04-20T16:41:14Z</time>
      </trkpt>
      <trkpt lat="50.54778" lon="6.20763">
        <ele>519</ele>
        <time>2025-04-20T16:41:29Z</time>
      </trkpt>
      <trkpt lat="50.54719" lon="6.20754">
        <ele>520</ele>
        <time>2025-04-20T16:41:43Z</time>
      </trkpt>
      <trkpt lat="50.54664" lon="6.20727">
        <ele>523</ele>
        <time>2025-04-20T16:41:56Z</time>
      </trkpt>
      <trkpt lat="50.54603" lon="6.20674">
        <ele>522</ele>
        <time>2025-04-20T16:42:12Z</time>
      </trkpt>
      <trkpt lat="50.54545" lon="6.2059">
        <ele>514</ele>
        <time>2025-04-20T16:42:31Z</time>
      </trkpt>
      <trkpt lat="50.54507" lon="6.20504">
        <ele>508</ele>
        <time>2025-04-20T16:42:46Z</time>
      </trkpt>
      <trkpt lat="50.54453" lon="6.20298">
        <ele>514</ele>
        <time>2025-04-20T16:43:19Z</time>
      </trkpt>
      <trkpt lat="50.54426" lon="6.20228">
        <ele>518</ele>
        <time>2025-04-20T16:43:32Z</time>
      </trkpt>
      <trkpt lat="50.54373" lon="6.20147">
        <ele>522</ele>
        <time>2025-04-20T16:43:49Z</time>
      </trkpt>
      <trkpt lat="50.54311" lon="6.20089">
        <ele>521</ele>
        <time>2025-04-20T16:44:06Z</time>
      </trkpt>
      <trkpt lat="50.54251" lon="6.20055">
        <ele>517</ele>
        <time>2025-04-20T16:44:21Z</time>
      </trkpt>
      <trkpt lat="50.54168" lon="6.19999">
        <ele>516</ele>
        <time>2025-04-20T16:44:42Z</time>
      </trkpt>
      <trkpt lat="50.54082" lon="6.1989">
        <ele>516</ele>
        <time>2025-04-20T16:45:07Z</time>
      </trkpt>
      <trkpt lat="50.54013" lon="6.19837">
        <ele>502</ele>
        <time>2025-04-20T16:45:25Z</time>
      </trkpt>
      <trkpt lat="50.53948" lon="6.19808">
        <ele>504</ele>
        <time>2025-04-20T16:45:41Z</time>
      </trkpt>
      <trkpt lat="50.53843" lon="6.19802">
        <ele>514</ele>
        <time>2025-04-20T16:46:06Z</time>
      </trkpt>
      <trkpt lat="50.53706" lon="6.19823">
        <ele>512</ele>
        <time>2025-04-20T16:46:38Z</time>
      </trkpt>
      <trkpt lat="50.53595" lon="6.19832">
        <ele>514</ele>
        <time>2025-04-20T16:47:04Z</time>
      </trkpt>
      <trkpt lat="50.53504" lon="6.19811">
        <ele>517</ele>
        <time>2025-04-20T16:47:25Z</time>
      </trkpt>
      <trkpt lat="50.53313" lon="6.19696">
        <ele>509</ele>
        <time>2025-04-20T16:48:13Z</time>
      </trkpt>
      <trkpt lat="50.53229" lon="6.19659">
        <ele>509</ele>
        <time>2025-04-20T16:48:33Z</time>
      </trkpt>
      <trkpt lat="50.5312" lon="6.19654">
        <ele>515</ele>
        <time>2025-04-20T16:48:59Z</time>
      </trkpt>
      <trkpt lat="50.5299" lon="6.19698">
        <ele>522</ele>
        <time>2025-04-20T16:49:30Z</time>
      </trkpt>
      <trkpt lat="50.52889" lon="6.19757">
        <ele>523</ele>
        <time>2025-04-20T16:49:55Z</time>
      </trkpt>
      <trkpt lat="50.52762" lon="6.19873">
        <ele>523</ele>
        <time>2025-04-20T16:50:29Z</time>
      </trkpt>
      <trkpt lat="50.52731" lon="6.19932">
        <ele>517</ele>
        <time>2025-04-20T16:50:41Z</time>
      </trkpt>
      <trkpt lat="50.52686" lon="6.20049">
        <ele>510</ele>
        <time>2025-04-20T16:51:01Z</time>
      </trkpt>
      <trkpt lat="50.52627" lon="6.20302">
        <ele>505</ele>
        <time>2025-04-20T16:51:41Z</time>
      </trkpt>
      <trkpt lat="50.52572" lon="6.20413">
        <ele>509</ele>
        <time>2025-04-20T16:52:02Z</time>
      </trkpt>
      <trkpt lat="50.52393" lon="6.20619">
        <ele>509</ele>
        <time>2025-04-20T16:52:54Z</time>
      </trkpt>
      <trkpt lat="50.52336" lon="6.20666">
        <ele>510</ele>
        <time>2025-04-20T16:53:09Z</time>
      </trkpt>
      <trkpt lat="50.52235" lon="6.20695">
        <ele>512</ele>
        <time>2025-04-20T16:53:33Z</time>
      </trkpt>
      <trkpt lat="50.5212" lon="6.20657">
        <ele>509</ele>
        <time>2025-04-20T16:54:00Z</time>
      </trkpt>
      <trkpt lat="50.51721" lon="6.20358">
        <ele>512</ele>
        <time>2025-04-20T16:55:43Z</time>
      </trkpt>
      <trkpt lat="50.51611" lon="6.2025">
        <ele>514</ele>
        <time>2025-04-20T16:56:14Z</time>
      </trkpt>
      <trkpt lat="50.51517" lon="6.20134">
        <ele>517</ele>
        <time>2025-04-20T16:56:42Z</time>
      </trkpt>
      <trkpt lat="50.51345" lon="6.19852">
        <ele>516</ele>
        <time>2025-04-20T16:57:40Z</time>
      </trkpt>
      <trkpt lat="50.5125" lon="6.19762">
        <ele>515</ele>
        <time>2025-04-20T16:58:06Z</time>
      </trkpt>
      <trkpt lat="50.51237" lon="6.19765">
        <ele>514</ele>
        <time>2025-04-20T16:58:09Z</time>
      </trkpt>
      <trkpt lat="50.51151" lon="6.19697">
        <ele>521</ele>
        <time>2025-04-20T16:58:31Z</time>
      </trkpt>
      <trkpt lat="50.5103" lon="6.19569">
        <ele>526</ele>
        <time>2025-04-20T16:59:05Z</time>
      </trkpt>
      <trkpt lat="50.5098" lon="6.19524">
        <ele>530</ele>
        <time>2025-04-20T16:59:19Z</time>
      </trkpt>
      <trkpt lat="50.50884" lon="6.19479">
        <ele>529</ele>
        <time>2025-04-20T16:59:42Z</time>
      </trkpt>
      <trkpt lat="50.50813" lon="6.19438">
        <ele>531</ele>
        <time>2025-04-20T17:00:00Z</time>
      </trkpt>
      <trkpt lat="50.50752" lon="6.1939">
        <ele>532</ele>
        <time>2025-04-20T17:00:16Z</time>
      </trkpt>
      <trkpt lat="50.5066" lon="6.19297">
        <ele>532</ele>
        <time>2025-04-20T17:00:41Z</time>
      </trkpt>
      <trkpt lat="50.50564" lon="6.19186">
        <ele>530</ele>
        <time>2025-04-20T17:01:09Z</time>
      </trkpt>
      <trkpt lat="50.50522" lon="6.19122">
        <ele>529</ele>
        <time>2025-04-20T17:01:23Z</time>
      </trkpt>
      <trkpt lat="50.50468" lon="6.19015">
        <ele>531</ele>
        <time>2025-04-20T17:01:43Z</time>
      </trkpt>
      <trkpt lat="50.50433" lon="6.18918">
        <ele>524</ele>
        <time>2025-04-20T17:01:59Z</time>
      </trkpt>
      <trkpt lat="50.50405" lon="6.18816">
        <ele>523</ele>
        <time>2025-04-20T17:02:16Z</time>
      </trkpt>
      <trkpt lat="50.50353" lon="6.18593">
        <ele>528</ele>
        <time>2025-04-20T17:02:51Z</time>
      </trkpt>
      <trkpt lat="50.50321" lon="6.18469">
        <ele>532</ele>
        <time>2025-04-20T17:03:11Z</time>
      </trkpt>
      <trkpt lat="50.50298" lon="6.18404">
        <ele>534</ele>
        <time>2025-04-20T17:03:22Z</time>
      </trkpt>
      <trkpt lat="50.50198" lon="6.18206">
        <ele>535</ele>
        <time>2025-04-20T17:04:00Z</time>
      </trkpt>
      <trkpt lat="50.50165" lon="6.18107">
        <ele>533</ele>
        <time>2025-04-20T17:04:16Z</time>
      </trkpt>
      <trkpt lat="50.501" lon="6.17843">
        <ele>528</ele>
        <time>2025-04-20T17:04:58Z</time>
      </trkpt>
      <trkpt lat="50.50045" lon="6.17723">
        <ele>534</ele>
        <time>2025-04-20T17:05:20Z</time>
      </trkpt>
      <trkpt lat="50.5001" lon="6.17676">
        <ele>534</ele>
        <time>2025-04-20T17:05:31Z</time>
      </trkpt>
      <trkpt lat="50.49936" lon="6.1759">
        <ele>536</ele>
        <time>2025-04-20T17:05:53Z</time>
      </trkpt>
      <trkpt lat="50.4989" lon="6.17545">
        <ele>538</ele>
        <time>2025-04-20T17:06:05Z</time>
      </trkpt>
      <trkpt lat="50.49779" lon="6.17473">
        <ele>537</ele>
        <time>2025-04-20T17:06:33Z</time>
      </trkpt>
      <trkpt lat="50.49737" lon="6.17439">
        <ele>537</ele>
        <time>2025-04-20T17:06:44Z</time>
      </trkpt>
      <trkpt lat="50.49668" lon="6.17369">
        <ele>534</ele>
        <time>2025-04-20T17:07:03Z</time>
      </trkpt>
      <trkpt lat="50.49551" lon="6.17155">
        <ele>538</ele>
        <time>2025-04-20T17:07:45Z</time>
      </trkpt>
      <trkpt lat="50.49475" lon="6.17072">
        <ele>537</ele>
        <time>2025-04-20T17:08:07Z</time>
      </trkpt>
      <trkpt lat="50.49394" lon="6.17023">
        <ele>538</ele>
        <time>2025-04-20T17:08:27Z</time>
      </trkpt>
      <trkpt lat="50.49316" lon="6.17028">
        <ele>532</ele>
        <time>2025-04-20T17:08:46Z</time>
      </trkpt>
      <trkpt lat="50.49189" lon="6.17044">
        <ele>532</ele>
        <time>2025-04-20T17:09:15Z</time>
      </trkpt>
      <trkpt lat="50.49185" lon="6.17029">
        <ele>533</ele>
        <time>2025-04-20T17:09:18Z</time>
      </trkpt>
      <trkpt lat="50.49135" lon="6.17032">
        <ele>533</ele>
        <time>2025-04-20T17:09:29Z</time>
      </trkpt>
      <trkpt lat="50.49123" lon="6.16912">
        <ele>538</ele>
        <time>2025-04-20T17:09:47Z</time>
      </trkpt>
      <trkpt lat="50.48778" lon="6.1574">
        <ele>548</ele>
        <time>2025-04-20T17:12:59Z</time>
      </trkpt>
      <trkpt lat="50.4852" lon="6.15924">
        <ele>539</ele>
        <time>2025-04-20T17:14:05Z</time>
      </trkpt>
      <trkpt lat="50.48563" lon="6.16012">
        <ele>539</ele>
        <time>2025-04-20T17:14:22Z</time>
      </trkpt>
      <trkpt lat="50.48557" lon="6.16024">
        <ele>539</ele>
        <time>2025-04-20T17:14:24Z</time>
      </trkpt>
      <trkpt lat="50.48505" lon="6.15935">
        <ele>538</ele>
        <time>2025-04-20T17:14:42Z</time>
      </trkpt>
      <trkpt lat="50.48364" lon="6.15781">
        <ele>542</ele>
        <time>2025-04-20T17:15:22Z</time>
      </trkpt>
      <trkpt lat="50.48234" lon="6.15625">
        <ele>547</ele>
        <time>2025-04-20T17:16:00Z</time>
      </trkpt>
      <trkpt lat="50.48055" lon="6.15355">
        <ele>549</ele>
        <time>2025-04-20T17:16:58Z</time>
      </trkpt>
      <trkpt lat="50.4778" lon="6.14787">
        <ele>558</ele>
        <time>2025-04-20T17:18:44Z</time>
      </trkpt>
      <trkpt lat="50.47724" lon="6.1471">
        <ele>560</ele>
        <time>2025-04-20T17:19:02Z</time>
      </trkpt>
      <trkpt lat="50.47673" lon="6.14652">
        <ele>561</ele>
        <time>2025-04-20T17:19:17Z</time>
      </trkpt>
      <trkpt lat="50.47676" lon="6.14641">
        <ele>562</ele>
        <time>2025-04-20T17:19:18Z</time>
      </trkpt>
      <trkpt lat="50.47656" lon="6.14618">
        <ele>562</ele>
        <time>2025-04-20T17:19:24Z</time>
      </trkpt>
      <trkpt lat="50.47455" lon="6.14465">
        <ele>564</ele>
        <time>2025-04-20T17:20:16Z</time>
      </trkpt>
      <trkpt lat="50.47427" lon="6.14457">
        <ele>564</ele>
        <time>2025-04-20T17:20:23Z</time>
      </trkpt>
      <trkpt lat="50.47357" lon="6.14408">
        <ele>563</ele>
        <time>2025-04-20T17:20:41Z</time>
      </trkpt>
      <trkpt lat="50.47337" lon="6.14399">
        <ele>562</ele>
        <time>2025-04-20T17:20:46Z</time>
      </trkpt>
      <trkpt lat="50.47425" lon="6.14147">
        <ele>563</ele>
        <time>2025-04-20T17:21:28Z</time>
      </trkpt>
      <trkpt lat="50.4743" lon="6.14084">
        <ele>562</ele>
        <time>2025-04-20T17:21:38Z</time>
      </trkpt>
      <trkpt lat="50.47409" lon="6.13935">
        <ele>566</ele>
        <time>2025-04-20T17:22:01Z</time>
      </trkpt>
      <trkpt lat="50.47408" lon="6.13878">
        <ele>567</ele>
        <time>2025-04-20T17:22:09Z</time>
      </trkpt>
      <trkpt lat="50.47453" lon="6.13585">
        <ele>573</ele>
        <time>2025-04-20T17:22:54Z</time>
      </trkpt>
      <trkpt lat="50.47509" lon="6.1328">
        <ele>574</ele>
        <time>2025-04-20T17:23:41Z</time>
      </trkpt>
      <trkpt lat="50.47558" lon="6.13115">
        <ele>574</ele>
        <time>2025-04-20T17:24:08Z</time>
      </trkpt>
      <trkpt lat="50.47591" lon="6.13042">
        <ele>575</ele>
        <time>2025-04-20T17:24:21Z</time>
      </trkpt>
      <trkpt lat="50.47596" lon="6.12942">
        <ele>574</ele>
        <time>2025-04-20T17:24:36Z</time>
      </trkpt>
      <trkpt lat="50.47578" lon="6.12763">
        <ele>574</ele>
        <time>2025-04-20T17:25:03Z</time>
      </trkpt>
      <trkpt lat="50.47496" lon="6.12367">
        <ele>577</ele>
        <time>2025-04-20T17:26:05Z</time>
      </trkpt>
      <trkpt lat="50.47475" lon="6.12277">
        <ele>578</ele>
        <time>2025-04-20T17:26:19Z</time>
      </trkpt>
      <trkpt lat="50.47461" lon="6.12117">
        <ele>579</ele>
        <time>2025-04-20T17:26:43Z</time>
      </trkpt>
      <trkpt lat="50.47432" lon="6.11953">
        <ele>582</ele>
        <time>2025-04-20T17:27:09Z</time>
      </trkpt>
      <trkpt lat="50.47423" lon="6.1187">
        <ele>584</ele>
        <time>2025-04-20T17:27:21Z</time>
      </trkpt>
      <trkpt lat="50.47463" lon="6.11651">
        <ele>589</ele>
        <time>2025-04-20T17:27:55Z</time>
      </trkpt>
      <trkpt lat="50.47458" lon="6.11562">
        <ele>591</ele>
        <time>2025-04-20T17:28:08Z</time>
      </trkpt>
      <trkpt lat="50.47634" lon="6.11398">
        <ele>594</ele>
        <time>2025-04-20T17:28:56Z</time>
      </trkpt>
      <trkpt lat="50.47537" lon="6.11269">
        <ele>597</ele>
        <time>2025-04-20T17:29:26Z</time>
      </trkpt>
      <trkpt lat="50.47433" lon="6.11166">
        <ele>601</ele>
        <time>2025-04-20T17:29:54Z</time>
      </trkpt>
      <trkpt lat="50.4749" lon="6.11092">
        <ele>601</ele>
        <time>2025-04-20T17:30:12Z</time>
      </trkpt>
      <trkpt lat="50.47482" lon="6.11042">
        <ele>603</ele>
        <time>2025-04-20T17:30:19Z</time>
      </trkpt>
    </trkseg>
  </trk>
</gpx>